| time (UTC) | temp F | wind direction | speed knots | gust knots | rain 1hr in | rain 24hr in | rain mn in | humidity % | barometer mb |
| 20260506134503 | 72 | 116 | 7.0 | 15.6 | 0.00 | 0.00 | 0.00 | 47 | 1078.1 |
| 20260506134303 | 72 | 116 | 7.8 | 15.6 | 0.00 | 0.00 | 0.00 | 47 | 1078.1 |
| 20260506134203 | 72 | 114 | 8.7 | 15.6 | 0.00 | 0.00 | 0.00 | 47 | 1077.8 |
| 20260506134103 | 72 | 113 | 8.7 | 15.6 | 0.00 | 0.00 | 0.00 | 47 | 1078.1 |
| 20260506134017 | 72 | 112 | 8.7 | 16.5 | 0.00 | 0.00 | 0.00 | 47 | 1078.1 |
| 20260506134003 | 72 | 112 | 8.7 | 16.5 | 0.00 | 0.00 | 0.00 | 47 | 1078.1 |
| 20260506133903 | 72 | 113 | 8.7 | 16.5 | 0.00 | 0.00 | 0.00 | 46 | 1078.2 |
| 20260506133818 | 72 | 112 | 7.8 | 16.5 | 0.00 | 0.00 | 0.00 | 47 | 1078.2 |
| 20260506133704 | 72 | 112 | 7.8 | 16.5 | 0.00 | 0.00 | 0.00 | 46 | 1078.0 |
| 20260506133503 | 72 | 109 | 7.0 | 16.5 | 0.00 | 0.00 | 0.00 | 46 | 1078.2 |
| 20260506133403 | 72 | 104 | 7.0 | 16.5 | 0.00 | 0.00 | 0.00 | 47 | 1077.9 |
| 20260506133303 | 72 | 107 | 7.0 | 20.0 | 0.00 | 0.00 | 0.00 | 46 | 1077.8 |
| 20260506133203 | 72 | 105 | 6.1 | 20.0 | 0.00 | 0.00 | 0.00 | 46 | 1078.0 |
| 20260506133103 | 72 | 105 | 6.1 | 20.0 | 0.00 | 0.00 | 0.00 | 46 | 1078.1 |
| 20260506133003 | 72 | 103 | 6.1 | 20.0 | 0.00 | 0.00 | 0.00 | 46 | 1078.0 |
| 20260506132903 | 72 | 104 | 6.1 | 20.0 | 0.00 | 0.00 | 0.00 | 46 | 1078.2 |
| 20260506132818 | 72 | 105 | 6.1 | 20.0 | 0.00 | 0.00 | 0.00 | 45 | 1078.2 |
| 20260506132803 | 72 | 104 | 6.1 | 20.0 | 0.00 | 0.00 | 0.00 | 45 | 1078.1 |
| 20260506132703 | 72 | 102 | 6.1 | 20.0 | 0.00 | 0.00 | 0.00 | 46 | 1078.1 |
| 20260506132503 | 72 | 104 | 7.0 | 20.0 | 0.00 | 0.00 | 0.00 | 46 | 1078.4 |
| 20260506132403 | 72 | 105 | 7.0 | 20.0 | 0.00 | 0.00 | 0.00 | 45 | 1078.2 |
| 20260506132217 | 72 | 101 | 7.0 | 15.6 | 0.00 | 0.00 | 0.00 | 45 | 1078.1 |
| 20260506132203 | 72 | 101 | 7.0 | 15.6 | 0.00 | 0.00 | 0.00 | 45 | 1078.3 |
| 20260506132103 | 72 | 101 | 6.1 | 15.6 | 0.00 | 0.00 | 0.00 | 46 | 1078.4 |
| 20260506131917 | 72 | 100 | 7.0 | 15.6 | 0.00 | 0.00 | 0.00 | 46 | 1078.1 |
| 20260506131903 | 72 | 100 | 7.0 | 15.6 | 0.00 | 0.00 | 0.00 | 46 | 1078.4 |
| 20260506131803 | 72 | 100 | 7.0 | 15.6 | 0.00 | 0.00 | 0.00 | 45 | 1078.4 |
| 20260506131603 | 72 | 100 | 7.0 | 15.6 | 0.00 | 0.00 | 0.00 | 45 | 1078.3 |
| 20260506131503 | 73 | 104 | 6.1 | 15.6 | 0.00 | 0.00 | 0.00 | 45 | 1078.6 |
| 20260506131403 | 72 | 107 | 6.1 | 15.6 | 0.00 | 0.00 | 0.00 | 46 | 1078.4 |
| 20260506131303 | 72 | 113 | 6.1 | 11.3 | 0.00 | 0.00 | 0.00 | 46 | 1078.1 |
| 20260506131203 | 72 | 118 | 6.1 | 11.3 | 0.00 | 0.00 | 0.00 | 46 | 1078.2 |
| 20260506131103 | 72 | 122 | 6.1 | 12.2 | 0.00 | 0.00 | 0.00 | 46 | 1078.2 |
| 20260506131003 | 72 | 124 | 6.1 | 12.2 | 0.00 | 0.00 | 0.00 | 46 | 1078.5 |
| 20260506130903 | 72 | 123 | 6.1 | 12.2 | 0.00 | 0.00 | 0.00 | 45 | 1078.3 |
| 20260506130803 | 72 | 123 | 7.0 | 13.9 | 0.00 | 0.00 | 0.00 | 45 | 1078.3 |
| 20260506130703 | 72 | 123 | 7.0 | 13.9 | 0.00 | 0.00 | 0.00 | 44 | 1078.2 |
| 20260506130617 | 72 | 123 | 7.0 | 13.9 | 0.00 | 0.00 | 0.00 | 45 | 1078.2 |
| 20260506130603 | 72 | 122 | 7.0 | 13.9 | 0.00 | 0.00 | 0.00 | 45 | 1078.4 |
| 20260506130517 | 72 | 123 | 6.1 | 13.9 | 0.00 | 0.00 | 0.00 | 45 | 1078.4 |
| 20260506130503 | 72 | 121 | 6.1 | 13.9 | 0.00 | 0.00 | 0.00 | 45 | 1078.3 |
| 20260506130418 | 72 | 118 | 6.1 | 13.9 | 0.00 | 0.00 | 0.00 | 45 | 1078.3 |
| 20260506130103 | 72 | 112 | 6.1 | 13.9 | 0.00 | 0.00 | 0.00 | 45 | 1078.4 |
| 20260506130004 | 72 | 113 | 6.1 | 13.9 | 0.00 | 0.00 | 0.00 | 45 | 1078.6 |
| 20260506125903 | 72 | 111 | 6.1 | 13.9 | 0.00 | 0.00 | 0.00 | 45 | 1078.5 |
| 20260506125803 | 72 | 110 | 5.2 | 13.0 | 0.00 | 0.00 | 0.00 | 44 | 1078.6 |
| 20260506125703 | 72 | 110 | 4.3 | 12.2 | 0.00 | 0.00 | 0.00 | 45 | 1078.5 |
| 20260506125603 | 72 | 111 | 4.3 | 12.2 | 0.00 | 0.00 | 0.00 | 44 | 1078.5 |
| 20260506125517 | 72 | 106 | 5.2 | 12.2 | 0.00 | 0.00 | 0.00 | 44 | 1078.5 |
| 20260506125503 | 72 | 106 | 5.2 | 12.2 | 0.00 | 0.00 | 0.00 | 44 | 1078.7 |
| 20260506125418 | 72 | 106 | 5.2 | 12.2 | 0.00 | 0.00 | 0.00 | 44 | 1078.7 |
| 20260506125403 | 72 | 107 | 5.2 | 12.2 | 0.00 | 0.00 | 0.00 | 45 | 1078.5 |
| 20260506125318 | 72 | 108 | 4.3 | 12.2 | 0.00 | 0.00 | 0.00 | 45 | 1078.5 |
| 20260506125003 | 72 | 109 | 3.5 | 12.2 | 0.00 | 0.00 | 0.00 | 46 | 1078.6 |
| 20260506124903 | 72 | 116 | 4.3 | 12.2 | 0.00 | 0.00 | 0.00 | 46 | 1078.7 |
| 20260506124803 | 72 | 117 | 4.3 | 12.2 | 0.00 | 0.00 | 0.00 | 46 | 1078.7 |
| 20260506124703 | 72 | 120 | 4.3 | 12.2 | 0.00 | 0.00 | 0.00 | 46 | 1078.7 |
| 20260506124603 | 72 | 122 | 4.3 | 12.2 | 0.00 | 0.00 | 0.00 | 45 | 1078.4 |
| 20260506124503 | 72 | 123 | 4.3 | 12.2 | 0.00 | 0.00 | 0.00 | 45 | 1078.6 |
| 20260506124403 | 72 | 121 | 5.2 | 12.2 | 0.00 | 0.00 | 0.00 | 46 | 1078.7 |
| 20260506124303 | 72 | 119 | 5.2 | 12.2 | 0.00 | 0.00 | 0.00 | 45 | 1078.8 |
| 20260506124203 | 72 | 119 | 5.2 | 12.2 | 0.00 | 0.00 | 0.00 | 45 | 1078.8 |
| 20260506124103 | 72 | 118 | 6.1 | 12.2 | 0.00 | 0.00 | 0.00 | 45 | 1078.8 |
| 20260506124003 | 72 | 118 | 6.1 | 12.2 | 0.00 | 0.00 | 0.00 | 45 | 1078.4 |
| 20260506123917 | 72 | 118 | 6.1 | 13.9 | 0.00 | 0.00 | 0.00 | 45 | 1078.7 |
| 20260506123903 | 72 | 118 | 6.1 | 13.9 | 0.00 | 0.00 | 0.00 | 45 | 1078.7 |
| 20260506123803 | 72 | 116 | 6.1 | 13.9 | 0.00 | 0.00 | 0.00 | 45 | 1078.8 |
| 20260506123718 | 71 | 115 | 6.1 | 13.9 | 0.00 | 0.00 | 0.00 | 46 | 1078.8 |
| 20260506123603 | 71 | 116 | 6.1 | 13.9 | 0.00 | 0.00 | 0.00 | 45 | 1078.7 |
| 20260506123517 | 72 | 118 | 6.1 | 13.9 | 0.00 | 0.00 | 0.00 | 45 | 1078.7 |
| 20260506123403 | 72 | 120 | 6.1 | 13.9 | 0.00 | 0.00 | 0.00 | 45 | 1078.8 |
| 20260506123318 | 72 | 121 | 6.1 | 13.9 | 0.00 | 0.00 | 0.00 | 45 | 1078.8 |
| 20260506123203 | 72 | 122 | 5.2 | 13.9 | 0.00 | 0.00 | 0.00 | 45 | 1078.8 |
| 20260506123003 | 72 | 117 | 6.1 | 13.9 | 0.00 | 0.00 | 0.00 | 44 | 1078.8 |
| 20260506122903 | 72 | 114 | 6.1 | 13.9 | 0.00 | 0.00 | 0.00 | 44 | 1078.8 |
| 20260506122803 | 73 | 112 | 5.2 | 12.2 | 0.00 | 0.00 | 0.00 | 45 | 1078.8 |
| 20260506122703 | 73 | 112 | 4.3 | 9.6 | 0.00 | 0.00 | 0.00 | 44 | 1078.8 |
| 20260506122603 | 73 | 109 | 4.3 | 9.6 | 0.00 | 0.00 | 0.00 | 45 | 1079.2 |
| 20260506122503 | 73 | 107 | 4.3 | 9.6 | 0.00 | 0.00 | 0.00 | 45 | 1079.0 |
| 20260506122403 | 73 | 103 | 4.3 | 9.6 | 0.00 | 0.00 | 0.00 | 45 | 1079.2 |
| 20260506122305 | 73 | 100 | 4.3 | 9.6 | 0.00 | 0.00 | 0.00 | 45 | 1078.7 |
| 20260506122203 | 73 | 101 | 4.3 | 9.6 | 0.00 | 0.00 | 0.00 | 46 | 1079.2 |
| 20260506122103 | 73 | 103 | 4.3 | 9.6 | 0.00 | 0.00 | 0.00 | 46 | 1079.0 |
| 20260506122018 | 73 | 109 | 4.3 | 11.3 | 0.00 | 0.00 | 0.00 | 46 | 1079.0 |
| 20260506122003 | 73 | 109 | 4.3 | 11.3 | 0.00 | 0.00 | 0.00 | 46 | 1079.0 |
| 20260506121903 | 73 | 106 | 4.3 | 11.3 | 0.00 | 0.00 | 0.00 | 46 | 1079.2 |
| 20260506121703 | 73 | 107 | 5.2 | 11.3 | 0.00 | 0.00 | 0.00 | 46 | 1078.9 |
| 20260506121618 | 73 | 106 | 5.2 | 11.3 | 0.00 | 0.00 | 0.00 | 46 | 1078.9 |
| 20260506121603 | 73 | 105 | 5.2 | 11.3 | 0.00 | 0.00 | 0.00 | 46 | 1079.0 |
| 20260506121503 | 73 | 104 | 5.2 | 11.3 | 0.00 | 0.00 | 0.00 | 46 | 1079.2 |
| 20260506121303 | 73 | 101 | 6.1 | 14.8 | 0.00 | 0.00 | 0.00 | 45 | 1079.0 |
| 20260506121217 | 73 | 98 | 6.1 | 14.8 | 0.00 | 0.00 | 0.00 | 45 | 1079.0 |
| 20260506121203 | 73 | 98 | 6.1 | 14.8 | 0.00 | 0.00 | 0.00 | 45 | 1078.9 |
| 20260506121103 | 73 | 95 | 6.1 | 14.8 | 0.00 | 0.00 | 0.00 | 44 | 1079.0 |
| 20260506120903 | 73 | 91 | 6.1 | 14.8 | 0.00 | 0.00 | 0.00 | 45 | 1079.0 |
| 20260506120803 | 73 | 90 | 6.1 | 14.8 | 0.00 | 0.00 | 0.00 | 45 | 1079.0 |
| 20260506120703 | 73 | 88 | 6.1 | 14.8 | 0.00 | 0.00 | 0.00 | 44 | 1079.0 |
| 20260506120603 | 73 | 87 | 6.1 | 14.8 | 0.00 | 0.00 | 0.00 | 44 | 1079.0 |
| 20260506120503 | 74 | 89 | 6.1 | 14.8 | 0.00 | 0.00 | 0.00 | 44 | 1079.2 |
| 20260506120403 | 74 | 91 | 6.1 | 14.8 | 0.00 | 0.00 | 0.00 | 43 | 1079.2 |
| 20260506120303 | 74 | 93 | 5.2 | 13.9 | 0.00 | 0.00 | 0.00 | 42 | 1079.0 |
| 20260506120203 | 74 | 99 | 5.2 | 13.9 | 0.00 | 0.00 | 0.00 | 43 | 1079.0 |
| 20260506120103 | 74 | 104 | 5.2 | 13.9 | 0.00 | 0.00 | 0.00 | 42 | 1079.2 |
| 20260506120003 | 74 | 106 | 5.2 | 13.9 | 0.00 | 0.00 | 0.00 | 42 | 1078.8 |
| 20260506115903 | 75 | 108 | 4.3 | 13.9 | 0.00 | 0.00 | 0.00 | 42 | 1078.9 |
| 20260506115817 | 75 | 112 | 4.3 | 13.9 | 0.00 | 0.00 | 0.00 | 42 | 1078.9 |
| 20260506115803 | 75 | 112 | 4.3 | 13.9 | 0.00 | 0.00 | 0.00 | 42 | 1079.2 |
| 20260506115703 | 75 | 114 | 4.3 | 13.9 | 0.00 | 0.00 | 0.00 | 41 | 1079.0 |
| 20260506115503 | 75 | 114 | 4.3 | 13.9 | 0.00 | 0.00 | 0.00 | 42 | 1079.3 |
| 20260506115403 | 75 | 115 | 4.3 | 13.9 | 0.00 | 0.00 | 0.00 | 42 | 1079.3 |
| 20260506115306 | 75 | 112 | 4.3 | 13.9 | 0.00 | 0.00 | 0.00 | 42 | 1079.4 |
| 20260506115203 | 75 | 108 | 4.3 | 13.9 | 0.00 | 0.00 | 0.00 | 42 | 1078.9 |
| 20260506115103 | 75 | 107 | 3.5 | 8.7 | 0.00 | 0.00 | 0.00 | 43 | 1079.2 |
| 20260506115003 | 75 | 109 | 4.3 | 8.7 | 0.00 | 0.00 | 0.00 | 42 | 1078.9 |
| 20260506114918 | 75 | 111 | 3.5 | 8.7 | 0.00 | 0.00 | 0.00 | 42 | 1078.9 |
| 20260506114903 | 75 | 111 | 3.5 | 8.7 | 0.00 | 0.00 | 0.00 | 42 | 1079.0 |
| 20260506114817 | 75 | 111 | 4.3 | 8.7 | 0.00 | 0.00 | 0.00 | 42 | 1079.0 |
| 20260506114803 | 75 | 111 | 4.3 | 8.7 | 0.00 | 0.00 | 0.00 | 42 | 1078.9 |
| 20260506114503 | 75 | 134 | 3.5 | 8.7 | 0.00 | 0.00 | 0.00 | 43 | 1079.0 |
| 20260506114417 | 75 | 136 | 3.5 | 8.7 | 0.00 | 0.00 | 0.00 | 44 | 1079.0 |
| 20260506114403 | 75 | 137 | 3.5 | 8.7 | 0.00 | 0.00 | 0.00 | 44 | 1079.3 |
| 20260506114303 | 75 | 144 | 3.5 | 8.7 | 0.00 | 0.00 | 0.00 | 44 | 1079.2 |
| 20260506114103 | 74 | 150 | 3.5 | 7.8 | 0.00 | 0.00 | 0.00 | 44 | 1079.0 |
| 20260506114003 | 74 | 149 | 3.5 | 7.8 | 0.00 | 0.00 | 0.00 | 43 | 1079.0 |
| 20260506113903 | 74 | 150 | 3.5 | 7.8 | 0.00 | 0.00 | 0.00 | 43 | 1079.2 |
| 20260506113803 | 74 | 151 | 3.5 | 7.8 | 0.00 | 0.00 | 0.00 | 42 | 1079.3 |
| 20260506113717 | 75 | 149 | 3.5 | 7.8 | 0.00 | 0.00 | 0.00 | 43 | 1079.3 |
| 20260506113703 | 75 | 147 | 3.5 | 7.8 | 0.00 | 0.00 | 0.00 | 43 | 1079.0 |
| 20260506113603 | 75 | 136 | 3.5 | 8.7 | 0.00 | 0.00 | 0.00 | 42 | 1079.2 |
| 20260506113517 | 75 | 132 | 3.5 | 8.7 | 0.00 | 0.00 | 0.00 | 43 | 1079.2 |
| 20260506113417 | 75 | 131 | 3.5 | 8.7 | 0.00 | 0.00 | 0.00 | 43 | 1079.0 |
| 20260506113403 | 75 | 131 | 3.5 | 8.7 | 0.00 | 0.00 | 0.00 | 43 | 1079.2 |
| 20260506113103 | 74 | 127 | 3.5 | 8.7 | 0.00 | 0.00 | 0.00 | 43 | 1079.3 |
| 20260506113003 | 74 | 121 | 3.5 | 8.7 | 0.00 | 0.00 | 0.00 | 45 | 1079.2 |
| 20260506112918 | 74 | 114 | 3.5 | 8.7 | 0.00 | 0.00 | 0.00 | 45 | 1079.2 |
| 20260506112903 | 74 | 114 | 3.5 | 8.7 | 0.00 | 0.00 | 0.00 | 44 | 1079.2 |
| 20260506112803 | 74 | 108 | 3.5 | 8.7 | 0.00 | 0.00 | 0.00 | 44 | 1079.4 |
| 20260506112603 | 74 | 102 | 3.5 | 7.8 | 0.00 | 0.00 | 0.00 | 43 | 1079.2 |
| 20260506112503 | 74 | 100 | 3.5 | 7.8 | 0.00 | 0.00 | 0.00 | 44 | 1079.2 |
| 20260506112403 | 74 | 100 | 4.3 | 9.6 | 0.00 | 0.00 | 0.00 | 44 | 1079.5 |
| 20260506112305 | 74 | 97 | 4.3 | 9.6 | 0.00 | 0.00 | 0.00 | 43 | 1079.5 |
| 20260506112218 | 74 | 96 | 4.3 | 9.6 | 0.00 | 0.00 | 0.00 | 42 | 1079.5 |
| 20260506112203 | 74 | 96 | 4.3 | 9.6 | 0.00 | 0.00 | 0.00 | 42 | 1079.4 |
| 20260506112103 | 74 | 96 | 4.3 | 9.6 | 0.00 | 0.00 | 0.00 | 43 | 1079.6 |
| 20260506111903 | 75 | 101 | 4.3 | 9.6 | 0.00 | 0.00 | 0.00 | 42 | 1079.2 |
| 20260506111803 | 75 | 104 | 4.3 | 9.6 | 0.00 | 0.00 | 0.00 | 43 | 1079.5 |
| 20260506111703 | 75 | 104 | 4.3 | 9.6 | 0.00 | 0.00 | 0.00 | 42 | 1079.4 |
| 20260506111603 | 75 | 105 | 5.2 | 9.6 | 0.00 | 0.00 | 0.00 | 43 | 1079.5 |
| 20260506111503 | 75 | 109 | 4.3 | 9.6 | 0.00 | 0.00 | 0.00 | 43 | 1079.4 |
| 20260506111403 | 75 | 111 | 4.3 | 9.6 | 0.00 | 0.00 | 0.00 | 42 | 1079.5 |
| 20260506111303 | 75 | 112 | 4.3 | 9.6 | 0.00 | 0.00 | 0.00 | 43 | 1079.5 |
| 20260506111203 | 75 | 113 | 5.2 | 9.6 | 0.00 | 0.00 | 0.00 | 44 | 1079.6 |
| 20260506111103 | 75 | 116 | 5.2 | 9.6 | 0.00 | 0.00 | 0.00 | 43 | 1079.5 |
| 20260506111017 | 75 | 115 | 5.2 | 9.6 | 0.00 | 0.00 | 0.00 | 44 | 1079.5 |
| 20260506111003 | 75 | 115 | 5.2 | 9.6 | 0.00 | 0.00 | 0.00 | 44 | 1079.7 |
| 20260506110918 | 75 | 117 | 5.2 | 9.6 | 0.00 | 0.00 | 0.00 | 44 | 1079.7 |
| 20260506110903 | 75 | 116 | 5.2 | 9.6 | 0.00 | 0.00 | 0.00 | 44 | 1079.5 |
| 20260506110603 | 76 | 116 | 6.1 | 13.0 | 0.00 | 0.00 | 0.00 | 42 | 1079.2 |
| 20260506110503 | 76 | 114 | 6.1 | 13.0 | 0.00 | 0.00 | 0.00 | 42 | 1079.8 |
| 20260506110403 | 76 | 116 | 6.1 | 13.0 | 0.00 | 0.00 | 0.00 | 42 | 1079.5 |
| 20260506110303 | 76 | 119 | 6.1 | 13.0 | 0.00 | 0.00 | 0.00 | 42 | 1079.5 |
| 20260506110203 | 77 | 119 | 6.1 | 13.0 | 0.00 | 0.00 | 0.00 | 42 | 1079.5 |
| 20260506110117 | 77 | 116 | 6.1 | 13.0 | 0.00 | 0.00 | 0.00 | 42 | 1079.5 |
| 20260506110103 | 77 | 117 | 6.1 | 13.0 | 0.00 | 0.00 | 0.00 | 42 | 1079.5 |
| 20260506110003 | 77 | 116 | 6.1 | 13.0 | 0.00 | 0.00 | 0.00 | 42 | 1079.8 |
| 20260506105803 | 77 | 119 | 6.1 | 13.0 | 0.00 | 0.00 | 0.00 | 41 | 1079.4 |
| 20260506105717 | 77 | 120 | 6.1 | 13.0 | 0.00 | 0.00 | 0.00 | 42 | 1079.4 |
| 20260506105703 | 77 | 120 | 6.1 | 13.0 | 0.00 | 0.00 | 0.00 | 42 | 1079.5 |
| 20260506105603 | 78 | 120 | 5.2 | 13.0 | 0.00 | 0.00 | 0.00 | 42 | 1079.7 |
| 20260506105403 | 78 | 112 | 5.2 | 12.2 | 0.00 | 0.00 | 0.00 | 43 | 1079.6 |
| 20260506105305 | 77 | 106 | 4.3 | 12.2 | 0.00 | 0.00 | 0.00 | 43 | 1079.3 |
| 20260506105203 | 77 | 99 | 4.3 | 12.2 | 0.00 | 0.00 | 0.00 | 44 | 1079.7 |
| 20260506105103 | 76 | 100 | 4.3 | 8.7 | 0.00 | 0.00 | 0.00 | 44 | 1079.7 |
| 20260506105003 | 76 | 102 | 4.3 | 8.7 | 0.00 | 0.00 | 0.00 | 43 | 1079.6 |
| 20260506104903 | 76 | 103 | 3.5 | 8.7 | 0.00 | 0.00 | 0.00 | 43 | 1079.7 |
| 20260506104803 | 76 | 107 | 4.3 | 11.3 | 0.00 | 0.00 | 0.00 | 43 | 1079.9 |
| 20260506104703 | 76 | 108 | 4.3 | 11.3 | 0.00 | 0.00 | 0.00 | 43 | 1079.4 |
| 20260506104618 | 76 | 111 | 4.3 | 11.3 | 0.00 | 0.00 | 0.00 | 43 | 1079.4 |
| 20260506104603 | 76 | 111 | 4.3 | 11.3 | 0.00 | 0.00 | 0.00 | 43 | 1079.8 |
| 20260506104503 | 76 | 110 | 4.3 | 12.2 | 0.00 | 0.00 | 0.00 | 43 | 1079.6 |
| 20260506104303 | 76 | 112 | 5.2 | 13.9 | 0.00 | 0.00 | 0.00 | 44 | 1079.7 |
| 20260506104203 | 76 | 115 | 5.2 | 13.9 | 0.00 | 0.00 | 0.00 | 44 | 1079.6 |
| 20260506104103 | 76 | 118 | 5.2 | 13.9 | 0.00 | 0.00 | 0.00 | 44 | 1079.7 |
| 20260506104003 | 76 | 114 | 5.2 | 13.9 | 0.00 | 0.00 | 0.00 | 44 | 1079.6 |
| 20260506103903 | 76 | 112 | 5.2 | 13.9 | 0.00 | 0.00 | 0.00 | 44 | 1079.7 |
| 20260506103803 | 76 | 108 | 5.2 | 13.9 | 0.00 | 0.00 | 0.00 | 44 | 1079.6 |
| 20260506103703 | 76 | 102 | 5.2 | 13.9 | 0.00 | 0.00 | 0.00 | 45 | 1079.5 |
| 20260506103618 | 75 | 100 | 5.2 | 13.9 | 0.00 | 0.00 | 0.00 | 45 | 1079.5 |
| 20260506103603 | 75 | 99 | 5.2 | 13.9 | 0.00 | 0.00 | 0.00 | 45 | 1079.8 |
| 20260506103503 | 75 | 101 | 5.2 | 13.9 | 0.00 | 0.00 | 0.00 | 45 | 1079.7 |
| 20260506103303 | 74 | 106 | 5.2 | 12.2 | 0.00 | 0.00 | 0.00 | 47 | 1079.7 |
| 20260506103203 | 74 | 103 | 4.3 | 12.2 | 0.00 | 0.00 | 0.00 | 47 | 1079.8 |
| 20260506103103 | 74 | 102 | 4.3 | 12.2 | 0.00 | 0.00 | 0.00 | 46 | 1079.6 |
| 20260506103003 | 74 | 104 | 4.3 | 12.2 | 0.00 | 0.00 | 0.00 | 47 | 1079.8 |
| 20260506102903 | 74 | 107 | 4.3 | 12.2 | 0.00 | 0.00 | 0.00 | 46 | 1079.6 |
| 20260506102803 | 74 | 104 | 4.3 | 12.2 | 0.00 | 0.00 | 0.00 | 47 | 1079.8 |
| 20260506102703 | 74 | 108 | 4.3 | 12.2 | 0.00 | 0.00 | 0.00 | 46 | 1079.7 |
| 20260506102603 | 74 | 110 | 4.3 | 12.2 | 0.00 | 0.00 | 0.00 | 46 | 1080.0 |
| 20260506102518 | 74 | 112 | 3.5 | 9.6 | 0.00 | 0.00 | 0.00 | 46 | 1080.0 |
| 20260506102503 | 74 | 113 | 3.5 | 9.6 | 0.00 | 0.00 | 0.00 | 46 | 1079.9 |
| 20260506102403 | 74 | 117 | 3.5 | 9.6 | 0.00 | 0.00 | 0.00 | 47 | 1079.6 |
| 20260506102203 | 74 | 126 | 3.5 | 9.6 | 0.00 | 0.00 | 0.00 | 48 | 1079.8 |
| 20260506102117 | 73 | 125 | 3.5 | 9.6 | 0.00 | 0.00 | 0.00 | 47 | 1079.8 |
| 20260506102104 | 73 | 126 | 3.5 | 9.6 | 0.00 | 0.00 | 0.00 | 47 | 1079.8 |
| 20260506102003 | 73 | 134 | 3.5 | 9.6 | 0.00 | 0.00 | 0.00 | 47 | 1079.8 |
| 20260506101803 | 73 | 141 | 3.5 | 8.7 | 0.00 | 0.00 | 0.00 | 46 | 1079.6 |
| 20260506101703 | 73 | 146 | 3.5 | 8.7 | 0.00 | 0.00 | 0.00 | 46 | 1079.6 |
| 20260506101617 | 73 | 147 | 4.3 | 11.3 | 0.00 | 0.00 | 0.00 | 47 | 1079.6 |
| 20260506101603 | 73 | 145 | 4.3 | 11.3 | 0.00 | 0.00 | 0.00 | 47 | 1079.5 |
| 20260506101503 | 73 | 139 | 4.3 | 11.3 | 0.00 | 0.00 | 0.00 | 47 | 1079.5 |
| 20260506101303 | 73 | 127 | 4.3 | 11.3 | 0.00 | 0.00 | 0.00 | 46 | 1079.4 |
| 20260506101203 | 73 | 118 | 4.3 | 11.3 | 0.00 | 0.00 | 0.00 | 47 | 1079.7 |
| 20260506101103 | 73 | 118 | 4.3 | 11.3 | 0.00 | 0.00 | 0.00 | 46 | 1079.4 |
| 20260506101003 | 74 | 120 | 5.2 | 11.3 | 0.00 | 0.00 | 0.00 | 45 | 1079.7 |
| 20260506100903 | 74 | 118 | 5.2 | 11.3 | 0.00 | 0.00 | 0.00 | 45 | 1079.7 |
| 20260506100803 | 74 | 116 | 5.2 | 11.3 | 0.00 | 0.00 | 0.00 | 45 | 1079.8 |
| 20260506100703 | 75 | 110 | 5.2 | 11.3 | 0.00 | 0.00 | 0.00 | 45 | 1079.7 |
| 20260506100603 | 75 | 109 | 5.2 | 11.3 | 0.00 | 0.00 | 0.00 | 45 | 1079.7 |
| 20260506100503 | 75 | 119 | 5.2 | 13.9 | 0.00 | 0.00 | 0.00 | 45 | 1079.6 |
| 20260506100403 | 75 | 130 | 5.2 | 13.9 | 0.00 | 0.00 | 0.00 | 45 | 1079.9 |
| 20260506100303 | 76 | 132 | 5.2 | 13.9 | 0.00 | 0.00 | 0.00 | 45 | 1079.8 |
| 20260506100203 | 75 | 139 | 4.3 | 13.9 | 0.00 | 0.00 | 0.00 | 46 | 1079.8 |
| 20260506100004 | 75 | 145 | 4.3 | 13.9 | 0.00 | 0.00 | 0.00 | 46 | 1079.8 |
| 20260506095903 | 75 | 148 | 4.3 | 13.9 | 0.00 | 0.00 | 0.00 | 46 | 1080.0 |
| 20260506095803 | 75 | 151 | 4.3 | 13.9 | 0.00 | 0.00 | 0.00 | 44 | 1079.9 |
| 20260506095703 | 75 | 157 | 3.5 | 13.9 | 0.00 | 0.00 | 0.00 | 44 | 1080.1 |
| 20260506095603 | 75 | 155 | 3.5 | 13.9 | 0.00 | 0.00 | 0.00 | 44 | 1079.7 |
| 20260506095503 | 75 | 150 | 3.5 | 13.9 | 0.00 | 0.00 | 0.00 | 45 | 1079.6 |
| 20260506095403 | 75 | 144 | 3.5 | 8.7 | 0.00 | 0.00 | 0.00 | 46 | 1079.9 |
| 20260506095317 | 75 | 142 | 3.5 | 8.7 | 0.00 | 0.00 | 0.00 | 45 | 1079.9 |
| 20260506095305 | 75 | 144 | 3.5 | 8.7 | 0.00 | 0.00 | 0.00 | 45 | 1079.7 |
| 20260506095203 | 75 | 139 | 3.5 | 8.7 | 0.00 | 0.00 | 0.00 | 45 | 1079.6 |
| 20260506095003 | 75 | 119 | 3.5 | 8.7 | 0.00 | 0.00 | 0.00 | 46 | 1080.0 |
| 20260506094903 | 75 | 116 | 3.5 | 8.7 | 0.00 | 0.00 | 0.00 | 45 | 1079.5 |
| 20260506094803 | 75 | 117 | 4.3 | 12.2 | 0.00 | 0.00 | 0.00 | 45 | 1079.8 |
| 20260506094703 | 75 | 114 | 4.3 | 12.2 | 0.00 | 0.00 | 0.00 | 45 | 1079.9 |
| 20260506094603 | 76 | 109 | 4.3 | 12.2 | 0.00 | 0.00 | 0.00 | 45 | 1079.8 |
| 20260506094503 | 75 | 106 | 4.3 | 12.2 | 0.00 | 0.00 | 0.00 | 47 | 1080.0 |
| 20260506094403 | 75 | 106 | 4.3 | 12.2 | 0.00 | 0.00 | 0.00 | 46 | 1079.9 |
| 20260506094303 | 75 | 110 | 4.3 | 12.2 | 0.00 | 0.00 | 0.00 | 48 | 1080.0 |
| 20260506094203 | 75 | 115 | 4.3 | 12.2 | 0.00 | 0.00 | 0.00 | 47 | 1080.0 |
| 20260506094103 | 75 | 121 | 4.3 | 12.2 | 0.00 | 0.00 | 0.00 | 47 | 1079.8 |
| 20260506094003 | 74 | 133 | 3.5 | 12.2 | 0.00 | 0.00 | 0.00 | 46 | 1080.0 |
| 20260506093903 | 74 | 137 | 3.5 | 12.2 | 0.00 | 0.00 | 0.00 | 47 | 1080.0 |
| 20260506093803 | 74 | 141 | 3.5 | 9.6 | 0.00 | 0.00 | 0.00 | 47 | 1079.8 |
| 20260506093703 | 74 | 145 | 3.5 | 9.6 | 0.00 | 0.00 | 0.00 | 48 | 1079.8 |
| 20260506093617 | 73 | 153 | 2.6 | 7.0 | 0.00 | 0.00 | 0.00 | 49 | 1079.8 |
| 20260506093603 | 73 | 153 | 2.6 | 7.0 | 0.00 | 0.00 | 0.00 | 49 | 1079.8 |
| 20260506093503 | 73 | 147 | 3.5 | 7.8 | 0.00 | 0.00 | 0.00 | 49 | 1080.0 |
| 20260506093417 | 73 | 135 | 3.5 | 8.7 | 0.00 | 0.00 | 0.00 | 48 | 1080.0 |
| 20260506093303 | 74 | 129 | 3.5 | 8.7 | 0.00 | 0.00 | 0.00 | 47 | 1080.0 |
| 20260506093103 | 74 | 118 | 4.3 | 8.7 | 0.00 | 0.00 | 0.00 | 48 | 1079.8 |
| 20260506093003 | 74 | 115 | 4.3 | 8.7 | 0.00 | 0.00 | 0.00 | 47 | 1079.9 |
| 20260506092903 | 74 | 114 | 4.3 | 8.7 | 0.00 | 0.00 | 0.00 | 47 | 1079.9 |
| 20260506092803 | 74 | 110 | 4.3 | 8.7 | 0.00 | 0.00 | 0.00 | 47 | 1079.9 |
| 20260506092717 | 74 | 112 | 4.3 | 8.7 | 0.00 | 0.00 | 0.00 | 47 | 1079.9 |
| 20260506092703 | 74 | 112 | 4.3 | 8.7 | 0.00 | 0.00 | 0.00 | 47 | 1079.9 |
| 20260506092603 | 74 | 110 | 5.2 | 8.7 | 0.00 | 0.00 | 0.00 | 47 | 1079.7 |
| 20260506092403 | 74 | 111 | 5.2 | 13.0 | 0.00 | 0.00 | 0.00 | 47 | 1080.0 |
| 20260506092317 | 74 | 112 | 5.2 | 13.0 | 0.00 | 0.00 | 0.00 | 47 | 1080.0 |
| 20260506092305 | 74 | 112 | 5.2 | 13.0 | 0.00 | 0.00 | 0.00 | 47 | 1079.8 |
| 20260506092217 | 74 | 111 | 5.2 | 13.0 | 0.00 | 0.00 | 0.00 | 47 | 1079.8 |
| 20260506092203 | 74 | 111 | 5.2 | 13.0 | 0.00 | 0.00 | 0.00 | 48 | 1080.0 |
| 20260506091903 | 74 | 109 | 6.1 | 13.0 | 0.00 | 0.00 | 0.00 | 47 | 1079.9 |
| 20260506091803 | 74 | 111 | 6.1 | 13.0 | 0.00 | 0.00 | 0.00 | 47 | 1079.7 |
| 20260506091703 | 74 | 111 | 6.1 | 13.0 | 0.00 | 0.00 | 0.00 | 46 | 1080.0 |
| 20260506091603 | 74 | 113 | 5.2 | 13.0 | 0.00 | 0.00 | 0.00 | 47 | 1079.8 |
| 20260506091518 | 74 | 116 | 5.2 | 13.0 | 0.00 | 0.00 | 0.00 | 48 | 1079.8 |
| 20260506091503 | 74 | 116 | 5.2 | 13.0 | 0.00 | 0.00 | 0.00 | 48 | 1079.7 |
| 20260506091403 | 74 | 120 | 5.2 | 11.3 | 0.00 | 0.00 | 0.00 | 49 | 1079.8 |
| 20260506091317 | 73 | 118 | 5.2 | 11.3 | 0.00 | 0.00 | 0.00 | 49 | 1079.8 |
| 20260506091203 | 73 | 119 | 4.3 | 8.7 | 0.00 | 0.00 | 0.00 | 49 | 1079.8 |
| 20260506091017 | 73 | 116 | 4.3 | 8.7 | 0.00 | 0.00 | 0.00 | 49 | 1079.7 |
| 20260506091003 | 73 | 117 | 4.3 | 8.7 | 0.00 | 0.00 | 0.00 | 49 | 1079.9 |
| 20260506090918 | 72 | 116 | 4.3 | 8.7 | 0.00 | 0.00 | 0.00 | 50 | 1079.9 |
| 20260506090903 | 72 | 117 | 4.3 | 8.7 | 0.00 | 0.00 | 0.00 | 50 | 1079.8 |
| 20260506090617 | 72 | 117 | 3.5 | 8.7 | 0.00 | 0.00 | 0.00 | 51 | 1080.0 |
| 20260506090603 | 72 | 117 | 3.5 | 8.7 | 0.00 | 0.00 | 0.00 | 51 | 1079.9 |
| 20260506090503 | 72 | 116 | 2.6 | 8.7 | 0.00 | 0.00 | 0.00 | 51 | 1079.8 |
| 20260506090418 | 72 | 113 | 2.6 | 7.8 | 0.00 | 0.00 | 0.00 | 51 | 1079.8 |
| 20260506090303 | 71 | 123 | 2.6 | 8.7 | 0.00 | 0.00 | 0.00 | 53 | 1079.9 |
| 20260506090123 | 70 | 135 | 2.6 | 8.7 | 0.00 | 0.00 | 0.00 | 53 | 1079.8 |
| 20260506090006 | 70 | 142 | 2.6 | 8.7 | 0.00 | 0.00 | 0.00 | 52 | 1079.9 |
| 20260506085803 | 70 | 164 | 3.5 | 8.7 | 0.00 | 0.00 | 0.00 | 52 | 1079.7 |
| 20260506085722 | 70 | 167 | 3.5 | 8.7 | 0.00 | 0.00 | 0.00 | 52 | 1079.7 |
| 20260506085428 | 71 | 172 | 3.5 | 8.7 | 0.00 | 0.00 | 0.00 | 50 | 1079.9 |
| 20260506085329 | 71 | 169 | 3.5 | 8.7 | 0.00 | 0.00 | 0.00 | 50 | 1079.7 |
| 20260506085203 | 71 | 159 | 3.5 | 8.7 | 0.00 | 0.00 | 0.00 | 49 | 1079.9 |
| 20260506085118 | 72 | 160 | 3.5 | 8.7 | 0.00 | 0.00 | 0.00 | 48 | 1079.9 |
| 20260506085103 | 72 | 161 | 3.5 | 8.7 | 0.00 | 0.00 | 0.00 | 48 | 1080.0 |
| 20260506085016 | 72 | 162 | 3.5 | 8.7 | 0.00 | 0.00 | 0.00 | 48 | 1080.0 |
| 20260506085003 | 72 | 160 | 3.5 | 8.7 | 0.00 | 0.00 | 0.00 | 48 | 1079.6 |
| 20260506084703 | 72 | 154 | 2.6 | 8.7 | 0.00 | 0.00 | 0.00 | 49 | 1079.7 |
| 20260506084603 | 72 | 147 | 2.6 | 8.7 | 0.00 | 0.00 | 0.00 | 50 | 1079.8 |
| 20260506084503 | 72 | 145 | 2.6 | 7.0 | 0.00 | 0.00 | 0.00 | 51 | 1079.8 |
| 20260506084403 | 71 | 141 | 2.6 | 7.0 | 0.00 | 0.00 | 0.00 | 51 | 1079.6 |
| 20260506084303 | 71 | 149 | 2.6 | 6.1 | 0.00 | 0.00 | 0.00 | 52 | 1079.9 |
| 20260506084203 | 71 | 161 | 1.7 | 6.1 | 0.00 | 0.00 | 0.00 | 53 | 1079.9 |
| 20260506084118 | 71 | 160 | 1.7 | 6.1 | 0.00 | 0.00 | 0.00 | 53 | 1079.9 |
| 20260506084103 | 71 | 162 | 1.7 | 6.1 | 0.00 | 0.00 | 0.00 | 52 | 1079.9 |
| 20260506084003 | 70 | 168 | 2.6 | 6.1 | 0.00 | 0.00 | 0.00 | 53 | 1080.0 |
| 20260506083917 | 70 | 165 | 2.6 | 6.1 | 0.00 | 0.00 | 0.00 | 53 | 1080.0 |
| 20260506083803 | 69 | 154 | 2.6 | 6.1 | 0.00 | 0.00 | 0.00 | 57 | 1079.8 |
| 20260506083603 | 69 | 157 | 2.6 | 6.1 | 0.00 | 0.00 | 0.00 | 57 | 1079.8 |
| 20260506083503 | 68 | 158 | 2.6 | 6.1 | 0.00 | 0.00 | 0.00 | 56 | 1079.8 |
| 20260506083403 | 68 | 163 | 2.6 | 6.1 | 0.00 | 0.00 | 0.00 | 56 | 1079.7 |
| 20260506083317 | 67 | 165 | 2.6 | 6.1 | 0.00 | 0.00 | 0.00 | 56 | 1080.2 |
| 20260506083303 | 67 | 166 | 2.6 | 7.0 | 0.00 | 0.00 | 0.00 | 56 | 1080.2 |
| 20260506083017 | 67 | 159 | 2.6 | 7.0 | 0.00 | 0.00 | 0.00 | 56 | 1080.2 |
| 20260506083003 | 67 | 158 | 2.6 | 7.0 | 0.00 | 0.00 | 0.00 | 56 | 1080.2 |
| 20260506082903 | 67 | 161 | 2.6 | 7.0 | 0.00 | 0.00 | 0.00 | 55 | 1080.1 |
| 20260506082703 | 68 | 166 | 2.6 | 7.0 | 0.00 | 0.00 | 0.00 | 54 | 1079.9 |
| 20260506082603 | 68 | 173 | 2.6 | 7.0 | 0.00 | 0.00 | 0.00 | 54 | 1079.8 |
| 20260506082503 | 69 | 183 | 3.5 | 7.0 | 0.00 | 0.00 | 0.00 | 53 | 1080.0 |
| 20260506082403 | 69 | 179 | 3.5 | 8.7 | 0.00 | 0.00 | 0.00 | 53 | 1079.9 |
| 20260506082305 | 69 | 176 | 3.5 | 8.7 | 0.00 | 0.00 | 0.00 | 53 | 1079.7 |
| 20260506082203 | 69 | 180 | 3.5 | 8.7 | 0.00 | 0.00 | 0.00 | 52 | 1080.0 |
| 20260506082103 | 69 | 180 | 3.5 | 8.7 | 0.00 | 0.00 | 0.00 | 52 | 1080.0 |
| 20260506082003 | 69 | 187 | 3.5 | 8.7 | 0.00 | 0.00 | 0.00 | 52 | 1079.8 |
| 20260506081903 | 69 | 187 | 3.5 | 8.7 | 0.00 | 0.00 | 0.00 | 51 | 1079.9 |
| 20260506081803 | 70 | 186 | 3.5 | 8.7 | 0.00 | 0.00 | 0.00 | 51 | 1079.9 |
| 20260506081703 | 70 | 181 | 3.5 | 8.7 | 0.00 | 0.00 | 0.00 | 51 | 1079.7 |
| 20260506081603 | 70 | 177 | 3.5 | 8.7 | 0.00 | 0.00 | 0.00 | 51 | 1080.1 |
| 20260506081503 | 71 | 173 | 3.5 | 8.7 | 0.00 | 0.00 | 0.00 | 52 | 1079.9 |
| 20260506081403 | 70 | 182 | 2.6 | 7.8 | 0.00 | 0.00 | 0.00 | 52 | 1079.8 |
| 20260506081303 | 70 | 188 | 2.6 | 7.8 | 0.00 | 0.00 | 0.00 | 53 | 1080.0 |
| 20260506081203 | 70 | 191 | 2.6 | 7.8 | 0.00 | 0.00 | 0.00 | 53 | 1080.0 |
| 20260506081103 | 70 | 190 | 2.6 | 7.8 | 0.00 | 0.00 | 0.00 | 53 | 1079.9 |
| 20260506081003 | 70 | 182 | 2.6 | 7.8 | 0.00 | 0.00 | 0.00 | 54 | 1079.8 |
| 20260506080903 | 69 | 181 | 2.6 | 7.8 | 0.00 | 0.00 | 0.00 | 54 | 1080.0 |
| 20260506080803 | 69 | 184 | 2.6 | 7.8 | 0.00 | 0.00 | 0.00 | 54 | 1079.9 |
| 20260506080703 | 69 | 188 | 2.6 | 7.8 | 0.00 | 0.00 | 0.00 | 54 | 1080.0 |
| 20260506080603 | 69 | 180 | 2.6 | 7.8 | 0.00 | 0.00 | 0.00 | 54 | 1079.9 |
| 20260506080503 | 69 | 173 | 2.6 | 6.1 | 0.00 | 0.00 | 0.00 | 56 | 1079.9 |
| 20260506080403 | 68 | 163 | 2.6 | 6.1 | 0.00 | 0.00 | 0.00 | 57 | 1080.0 |
| 20260506080316 | 68 | 155 | 2.6 | 6.1 | 0.00 | 0.00 | 0.00 | 57 | 1080.0 |
| 20260506080303 | 68 | 155 | 2.6 | 6.1 | 0.00 | 0.00 | 0.00 | 57 | 1079.7 |
| 20260506080203 | 67 | 156 | 2.6 | 6.1 | 0.00 | 0.00 | 0.00 | 58 | 1079.8 |
| 20260506073403 | 66 | 231 | 1.7 | 6.1 | 0.00 | 0.00 | 0.00 | 57 | 1079.9 |
| 20260506073303 | 67 | 228 | 1.7 | 6.1 | 0.00 | 0.00 | 0.00 | 57 | 1079.8 |
| 20260506073203 | 67 | 224 | 1.7 | 6.1 | 0.00 | 0.00 | 0.00 | 56 | 1079.8 |
| 20260506073103 | 67 | 218 | 1.7 | 5.2 | 0.00 | 0.00 | 0.00 | 56 | 1080.0 |
| 20260506073003 | 68 | 229 | 1.7 | 5.2 | 0.00 | 0.00 | 0.00 | 56 | 1080.1 |
| 20260506072903 | 68 | 234 | 1.7 | 5.2 | 0.00 | 0.00 | 0.00 | 55 | 1079.9 |
| 20260506072803 | 68 | 239 | 1.7 | 6.1 | 0.00 | 0.00 | 0.00 | 55 | 1079.7 |
| 20260506072718 | 69 | 241 | 1.7 | 6.1 | 0.00 | 0.00 | 0.00 | 54 | 1079.7 |
| 20260506072703 | 69 | 241 | 1.7 | 6.1 | 0.00 | 0.00 | 0.00 | 54 | 1079.9 |
| 20260506072603 | 69 | 238 | 1.7 | 6.1 | 0.00 | 0.00 | 0.00 | 54 | 1079.9 |
| 20260506072403 | 69 | 233 | 1.7 | 6.1 | 0.00 | 0.00 | 0.00 | 55 | 1080.0 |
| 20260506072305 | 69 | 235 | 1.7 | 6.1 | 0.00 | 0.00 | 0.00 | 55 | 1080.0 |
| 20260506072203 | 69 | 240 | 1.7 | 6.1 | 0.00 | 0.00 | 0.00 | 55 | 1079.7 |
| 20260506072103 | 69 | 240 | 1.7 | 6.1 | 0.00 | 0.00 | 0.00 | 55 | 1079.8 |
| 20260506072003 | 69 | 233 | 1.7 | 6.1 | 0.00 | 0.00 | 0.00 | 55 | 1079.9 |
| 20260506071917 | 69 | 226 | 1.7 | 6.1 | 0.00 | 0.00 | 0.00 | 55 | 1079.9 |
| 20260506071903 | 69 | 223 | 1.7 | 6.1 | 0.00 | 0.00 | 0.00 | 55 | 1080.0 |
| 20260506071803 | 69 | 219 | 1.7 | 6.1 | 0.00 | 0.00 | 0.00 | 55 | 1079.7 |
| 20260506071616 | 69 | 230 | 2.6 | 7.0 | 0.00 | 0.00 | 0.00 | 56 | 1080.0 |
| 20260506071603 | 69 | 235 | 2.6 | 7.0 | 0.00 | 0.00 | 0.00 | 58 | 1080.0 |
| 20260506071517 | 69 | 241 | 2.6 | 7.0 | 0.00 | 0.00 | 0.00 | 58 | 1080.0 |
| 20260506071503 | 68 | 243 | 2.6 | 7.0 | 0.00 | 0.00 | 0.00 | 57 | 1079.9 |
| 20260506071203 | 68 | 248 | 3.5 | 9.6 | 0.00 | 0.00 | 0.00 | 58 | 1079.8 |
| 20260506071103 | 67 | 247 | 3.5 | 9.6 | 0.00 | 0.00 | 0.00 | 58 | 1079.8 |
| 20260506071003 | 67 | 245 | 3.5 | 9.6 | 0.00 | 0.00 | 0.00 | 58 | 1079.8 |
| 20260506070903 | 67 | 246 | 3.5 | 9.6 | 0.00 | 0.00 | 0.00 | 57 | 1079.9 |
| 20260506070803 | 67 | 248 | 3.5 | 9.6 | 0.00 | 0.00 | 0.00 | 58 | 1079.9 |
| 20260506070703 | 67 | 251 | 3.5 | 9.6 | 0.00 | 0.00 | 0.00 | 58 | 1079.8 |
| 20260506070603 | 67 | 248 | 3.5 | 9.6 | 0.00 | 0.00 | 0.00 | 58 | 1079.8 |
| 20260506070503 | 67 | 247 | 3.5 | 9.6 | 0.00 | 0.00 | 0.00 | 57 | 1079.9 |
| 20260506070403 | 67 | 244 | 2.6 | 9.6 | 0.00 | 0.00 | 0.00 | 58 | 1079.8 |
| 20260506070303 | 68 | 243 | 2.6 | 9.6 | 0.00 | 0.00 | 0.00 | 58 | 1080.0 |
| 20260506070203 | 68 | 235 | 2.6 | 7.0 | 0.00 | 0.00 | 0.00 | 58 | 1079.8 |
| 20260506070103 | 68 | 239 | 2.6 | 7.0 | 0.00 | 0.00 | 0.00 | 58 | 1080.0 |
| 20260506062503 | 63 | 179 | 0.9 | 5.2 | 0.00 | 0.00 | 0.00 | 67 | 1079.9 |
| 20260506062403 | 63 | 191 | 0.9 | 5.2 | 0.00 | 0.00 | 0.00 | 68 | 1079.7 |
| 20260506062305 | 63 | 215 | 0.9 | 3.5 | 0.00 | 0.00 | 0.00 | 68 | 1079.7 |
| 20260506062203 | 63 | 220 | 0.9 | 3.5 | 0.00 | 0.00 | 0.00 | 69 | 1079.8 |
| 20260506062103 | 63 | 256 | 0.9 | 5.2 | 0.00 | 0.00 | 0.00 | 70 | 1079.5 |
| 20260506062003 | 62 | 286 | 0.9 | 5.2 | 0.00 | 0.00 | 0.00 | 71 | 1079.6 |
| 20260506061903 | 62 | 277 | 0.9 | 5.2 | 0.00 | 0.00 | 0.00 | 72 | 1079.7 |
| 20260506061803 | 61 | 270 | 0.9 | 5.2 | 0.00 | 0.00 | 0.00 | 75 | 1079.7 |
| 20260506061717 | 61 | 260 | 1.7 | 5.2 | 0.00 | 0.00 | 0.00 | 74 | 1079.7 |
| 20260506061703 | 61 | 259 | 1.7 | 5.2 | 0.00 | 0.00 | 0.00 | 74 | 1079.7 |
| 20260506061603 | 60 | 259 | 1.7 | 5.2 | 0.00 | 0.00 | 0.00 | 75 | 1079.6 |
| 20260506061403 | 60 | 258 | 2.6 | 6.1 | 0.00 | 0.00 | 0.00 | 75 | 1079.4 |
| 20260506061318 | 60 | 256 | 2.6 | 6.1 | 0.00 | 0.00 | 0.00 | 75 | 1079.4 |
| 20260506061303 | 59 | 256 | 2.6 | 6.1 | 0.00 | 0.00 | 0.00 | 75 | 1079.5 |
| 20260506061203 | 59 | 260 | 2.6 | 6.1 | 0.00 | 0.00 | 0.00 | 75 | 1079.5 |
| 20260506061117 | 59 | 254 | 2.6 | 6.1 | 0.00 | 0.00 | 0.00 | 75 | 1079.5 |
| 20260506061003 | 59 | 251 | 2.6 | 6.1 | 0.00 | 0.00 | 0.00 | 75 | 1079.6 |
| 20260506060817 | 59 | 245 | 1.7 | 6.1 | 0.00 | 0.00 | 0.00 | 76 | 1079.6 |
| 20260506060803 | 59 | 243 | 1.7 | 6.1 | 0.00 | 0.00 | 0.00 | 76 | 1079.5 |
| 20260506060717 | 58 | 240 | 1.7 | 6.1 | 0.00 | 0.00 | 0.00 | 76 | 1079.5 |
| 20260506060703 | 58 | 239 | 1.7 | 6.1 | 0.00 | 0.00 | 0.00 | 76 | 1079.6 |
| 20260506060403 | 58 | 203 | 1.7 | 7.0 | 0.00 | 0.00 | 0.00 | 77 | 1079.6 |
| 20260506060303 | 58 | 202 | 1.7 | 7.0 | 0.00 | 0.00 | 0.00 | 77 | 1079.6 |
| 20260506060204 | 58 | 197 | 1.7 | 7.0 | 0.00 | 0.00 | 0.00 | 78 | 1079.8 |
| 20260506051403 | 56 | 237 | 2.6 | 7.0 | 0.00 | 0.00 | 0.00 | 83 | 1079.5 |
| 20260506051203 | 56 | 241 | 2.6 | 6.1 | 0.00 | 0.00 | 0.00 | 83 | 1079.6 |
| 20260506051103 | 56 | 237 | 2.6 | 6.1 | 0.00 | 0.00 | 0.00 | 83 | 1079.6 |
| 20260506051003 | 56 | 235 | 1.7 | 6.1 | 0.00 | 0.00 | 0.00 | 83 | 1079.5 |
| 20260506050903 | 56 | 235 | 1.7 | 6.1 | 0.00 | 0.00 | 0.00 | 83 | 1079.5 |
| 20260506050803 | 56 | 231 | 1.7 | 6.1 | 0.00 | 0.00 | 0.00 | 83 | 1079.5 |
| 20260506050703 | 56 | 230 | 1.7 | 6.1 | 0.00 | 0.00 | 0.00 | 83 | 1079.6 |
| 20260506050603 | 56 | 226 | 1.7 | 6.1 | 0.00 | 0.00 | 0.00 | 83 | 1079.3 |
| 20260506050503 | 56 | 215 | 1.7 | 3.5 | 0.00 | 0.00 | 0.00 | 83 | 1079.4 |
| 20260506050403 | 56 | 207 | 0.9 | 3.5 | 0.00 | 0.00 | 0.00 | 83 | 1079.5 |
| 20260506050303 | 56 | 196 | 0.9 | 3.5 | 0.00 | 0.00 | 0.00 | 83 | 1079.2 |
| 20260506050203 | 56 | 189 | 0.9 | 2.6 | 0.00 | 0.00 | 0.00 | 84 | 1079.4 |
| 20260506050116 | 57 | 185 | 0.9 | 2.6 | 0.00 | 0.00 | 0.00 | 84 | 1079.6 |
| 20260506050103 | 57 | 183 | 0.9 | 2.6 | 0.00 | 0.00 | 0.00 | 84 | 1079.6 |
| 20260506045103 | 58 | 196 | 0.9 | 2.6 | 0.00 | 0.00 | 0.00 | 88 | 1079.2 |
| 20260506045003 | 58 | 193 | 0.9 | 2.6 | 0.00 | 0.00 | 0.00 | 89 | 1078.9 |
| 20260506044903 | 57 | 194 | 0.9 | 2.6 | 0.00 | 0.00 | 0.00 | 89 | 1079.2 |
| 20260506044803 | 57 | 193 | 0.9 | 3.5 | 0.00 | 0.00 | 0.00 | 89 | 1079.2 |
| 20260506044703 | 57 | 191 | 0.9 | 3.5 | 0.00 | 0.00 | 0.00 | 89 | 1079.4 |
| 20260506044603 | 57 | 182 | 0.9 | 3.5 | 0.00 | 0.00 | 0.00 | 90 | 1079.0 |
| 20260506044503 | 56 | 175 | 0.9 | 5.2 | 0.00 | 0.00 | 0.00 | 91 | 1079.2 |
| 20260506044403 | 56 | 176 | 0.9 | 5.2 | 0.00 | 0.00 | 0.00 | 91 | 1079.0 |
| 20260506044303 | 56 | 181 | 0.9 | 5.2 | 0.00 | 0.00 | 0.00 | 91 | 1079.0 |
| 20260506044203 | 56 | 184 | 1.7 | 5.2 | 0.00 | 0.00 | 0.00 | 91 | 1078.9 |
| 20260506044103 | 56 | 182 | 1.7 | 5.2 | 0.00 | 0.00 | 0.00 | 91 | 1078.8 |
| 20260506044003 | 55 | 180 | 1.7 | 5.2 | 0.00 | 0.00 | 0.00 | 92 | 1079.2 |
| 20260506043903 | 55 | 181 | 1.7 | 5.2 | 0.00 | 0.00 | 0.00 | 92 | 1079.2 |
| 20260506043803 | 55 | 181 | 1.7 | 5.2 | 0.00 | 0.00 | 0.00 | 91 | 1079.0 |
| 20260506043703 | 54 | 180 | 1.7 | 5.2 | 0.00 | 0.00 | 0.00 | 92 | 1078.9 |
| 20260506043617 | 54 | 185 | 1.7 | 5.2 | 0.00 | 0.00 | 0.00 | 93 | 1078.9 |
| 20260506043603 | 54 | 186 | 1.7 | 5.2 | 0.00 | 0.00 | 0.00 | 93 | 1079.2 |
| 20260506043503 | 54 | 189 | 1.7 | 5.2 | 0.00 | 0.00 | 0.00 | 93 | 1079.0 |
| 20260506043417 | 54 | 187 | 1.7 | 3.5 | 0.00 | 0.00 | 0.00 | 93 | 1079.0 |
| 20260506043303 | 54 | 186 | 1.7 | 3.5 | 0.00 | 0.00 | 0.00 | 93 | 1079.0 |
| 20260506043103 | 53 | 189 | 0.9 | 3.5 | 0.00 | 0.00 | 0.00 | 93 | 1079.0 |
| 20260506043003 | 53 | 193 | 0.9 | 3.5 | 0.00 | 0.00 | 0.00 | 93 | 1079.0 |
| 20260506042903 | 53 | 194 | 0.9 | 3.5 | 0.00 | 0.00 | 0.00 | 93 | 1078.8 |
| 20260506042818 | 53 | 190 | 0.9 | 3.5 | 0.00 | 0.00 | 0.00 | 93 | 1078.8 |
| 20260506042803 | 53 | 188 | 0.9 | 3.5 | 0.00 | 0.00 | 0.00 | 93 | 1079.2 |
| 20260506042703 | 53 | 185 | 0.9 | 3.5 | 0.00 | 0.00 | 0.00 | 93 | 1079.2 |
| 20260506042503 | 53 | 178 | 0.9 | 2.6 | 0.00 | 0.00 | 0.00 | 93 | 1078.7 |
| 20260506042417 | 53 | 188 | 0.9 | 2.6 | 0.00 | 0.00 | 0.00 | 93 | 1078.7 |
| 20260506042403 | 53 | 188 | 0.9 | 2.6 | 0.00 | 0.00 | 0.00 | 93 | 1078.8 |
| 20260506042305 | 53 | 179 | 0.9 | 2.6 | 0.00 | 0.00 | 0.00 | 93 | 1078.9 |
| 20260506042103 | 53 | 176 | 0.9 | 2.6 | 0.00 | 0.00 | 0.00 | 93 | 1078.9 |
| 20260506042003 | 52 | 174 | 0.9 | 2.6 | 0.00 | 0.00 | 0.00 | 93 | 1078.8 |
| 20260506041903 | 52 | 172 | 0.9 | 2.6 | 0.00 | 0.00 | 0.00 | 93 | 1079.0 |
| 20260506041803 | 52 | 178 | 0.9 | 2.6 | 0.00 | 0.00 | 0.00 | 93 | 1078.5 |
| 20260506041717 | 52 | 176 | 0.9 | 2.6 | 0.00 | 0.00 | 0.00 | 93 | 1078.5 |
| 20260506041703 | 52 | 176 | 0.9 | 2.6 | 0.00 | 0.00 | 0.00 | 93 | 1078.9 |
| 20260506041603 | 52 | 169 | 0.9 | 2.6 | 0.00 | 0.00 | 0.00 | 93 | 1078.9 |
| 20260506041518 | 52 | 169 | 0.9 | 2.6 | 0.00 | 0.00 | 0.00 | 94 | 1078.9 |
| 20260506041403 | 52 | 166 | 0.9 | 2.6 | 0.00 | 0.00 | 0.00 | 94 | 1078.9 |
| 20260506041218 | 52 | 161 | 0.9 | 2.6 | 0.00 | 0.00 | 0.00 | 93 | 1079.2 |
| 20260506041203 | 52 | 161 | 0.9 | 2.6 | 0.00 | 0.00 | 0.00 | 93 | 1078.7 |
| 20260506041103 | 52 | 160 | 0.9 | 2.6 | 0.00 | 0.00 | 0.00 | 93 | 1079.0 |
| 20260506040903 | 52 | 157 | 0.9 | 2.6 | 0.00 | 0.00 | 0.00 | 92 | 1078.8 |
| 20260506040803 | 52 | 151 | 0.9 | 2.6 | 0.00 | 0.00 | 0.00 | 92 | 1078.9 |
| 20260506040717 | 52 | 150 | 0.9 | 2.6 | 0.00 | 0.00 | 0.00 | 92 | 1078.9 |
| 20260506040703 | 52 | 151 | 0.9 | 2.6 | 0.00 | 0.00 | 0.00 | 92 | 1078.8 |
| 20260506040603 | 52 | 150 | 0.9 | 5.2 | 0.00 | 0.00 | 0.00 | 92 | 1078.6 |
| 20260506040403 | 52 | 142 | 0.9 | 5.2 | 0.00 | 0.00 | 0.00 | 92 | 1078.8 |
| 20260506040303 | 52 | 141 | 0.9 | 5.2 | 0.00 | 0.00 | 0.00 | 92 | 1078.7 |
| 20260506040203 | 52 | 141 | 0.9 | 5.2 | 0.00 | 0.00 | 0.00 | 92 | 1078.7 |
| 20260506040003 | 52 | 141 | 0.9 | 5.2 | 0.00 | 0.00 | 0.00 | 92 | 1078.6 |
| 20260506035903 | 52 | 140 | 0.9 | 5.2 | 0.00 | 0.00 | 0.00 | 92 | 1078.7 |
| 20260506035803 | 52 | 142 | 0.9 | 5.2 | 0.00 | 0.00 | 0.00 | 93 | 1078.6 |
| 20260506035703 | 52 | 147 | 1.7 | 5.2 | 0.00 | 0.00 | 0.00 | 92 | 1078.5 |
| 20260506035603 | 52 | 146 | 1.7 | 5.2 | 0.00 | 0.00 | 0.00 | 92 | 1078.6 |
| 20260506035503 | 52 | 149 | 0.9 | 2.6 | 0.00 | 0.00 | 0.00 | 92 | 1078.5 |
| 20260506035403 | 52 | 149 | 0.9 | 2.6 | 0.00 | 0.00 | 0.00 | 94 | 1078.6 |
| 20260506035305 | 52 | 154 | 1.7 | 2.6 | 0.00 | 0.00 | 0.00 | 92 | 1078.5 |
| 20260506035203 | 52 | 157 | 1.7 | 2.6 | 0.00 | 0.00 | 0.00 | 92 | 1078.5 |
| 20260506035103 | 52 | 163 | 1.7 | 2.6 | 0.00 | 0.00 | 0.00 | 91 | 1078.6 |
| 20260506035017 | 52 | 166 | 0.9 | 2.6 | 0.00 | 0.00 | 0.00 | 91 | 1078.6 |
| 20260506035003 | 52 | 167 | 0.9 | 2.6 | 0.00 | 0.00 | 0.00 | 91 | 1078.6 |
| 20260506034917 | 52 | 170 | 0.9 | 2.6 | 0.00 | 0.00 | 0.00 | 91 | 1078.6 |
| 20260506034903 | 52 | 169 | 0.9 | 2.6 | 0.00 | 0.00 | 0.00 | 91 | 1078.8 |
| 20260506034717 | 52 | 165 | 0.9 | 2.6 | 0.00 | 0.00 | 0.00 | 91 | 1078.6 |
| 20260506034603 | 52 | 170 | 0.9 | 2.6 | 0.00 | 0.00 | 0.00 | 91 | 1078.7 |
| 20260506034403 | 52 | 195 | 0.9 | 1.7 | 0.00 | 0.00 | 0.00 | 91 | 1078.6 |
| 20260506034303 | 52 | 188 | 0.0 | 1.7 | 0.00 | 0.00 | 0.00 | 91 | 1078.6 |
| 20260506034203 | 52 | 180 | 0.0 | 1.7 | 0.00 | 0.00 | 0.00 | 90 | 1078.4 |
| 20260506034118 | 52 | 171 | 0.0 | 1.7 | 0.00 | 0.00 | 0.00 | 90 | 1078.4 |
| 20260506034103 | 52 | 164 | 0.0 | 1.7 | 0.00 | 0.00 | 0.00 | 90 | 1078.6 |
| 20260506034003 | 52 | 157 | 0.0 | 1.7 | 0.00 | 0.00 | 0.00 | 90 | 1078.5 |
| 20260506033803 | 52 | 162 | 0.0 | 0.9 | 0.00 | 0.00 | 0.00 | 90 | 1078.3 |
| 20260506033703 | 52 | 153 | 0.0 | 0.9 | 0.00 | 0.00 | 0.00 | 90 | 1078.5 |
| 20260506033603 | 52 | 141 | 0.0 | 1.7 | 0.00 | 0.00 | 0.00 | 90 | 1078.5 |
| 20260506033503 | 52 | 139 | 0.0 | 1.7 | 0.00 | 0.00 | 0.00 | 90 | 1078.6 |
| 20260506033403 | 52 | 139 | 0.0 | 1.7 | 0.00 | 0.00 | 0.00 | 90 | 1078.5 |
| 20260506033303 | 52 | 141 | 0.0 | 1.7 | 0.00 | 0.00 | 0.00 | 90 | 1078.6 |
| 20260506033203 | 52 | 140 | 0.0 | 1.7 | 0.00 | 0.00 | 0.00 | 90 | 1078.2 |
| 20260506033103 | 52 | 139 | 0.9 | 1.7 | 0.00 | 0.00 | 0.00 | 90 | 1078.4 |
| 20260506033003 | 52 | 141 | 0.9 | 1.7 | 0.00 | 0.00 | 0.00 | 90 | 1078.5 |
| 20260506032903 | 52 | 139 | 0.9 | 2.6 | 0.00 | 0.00 | 0.00 | 90 | 1078.4 |
| 20260506032803 | 53 | 139 | 0.9 | 2.6 | 0.00 | 0.00 | 0.00 | 90 | 1078.5 |
| 20260506032703 | 53 | 142 | 0.9 | 2.6 | 0.00 | 0.00 | 0.00 | 90 | 1078.5 |
| 20260506032603 | 53 | 143 | 0.9 | 2.6 | 0.00 | 0.00 | 0.00 | 90 | 1078.5 |
| 20260506032503 | 53 | 144 | 0.9 | 2.6 | 0.00 | 0.00 | 0.00 | 90 | 1078.5 |
| 20260506032403 | 53 | 144 | 0.9 | 2.6 | 0.00 | 0.00 | 0.00 | 90 | 1078.6 |
| 20260506032305 | 53 | 143 | 0.9 | 2.6 | 0.00 | 0.00 | 0.00 | 90 | 1078.4 |
| 20260506032203 | 53 | 145 | 0.9 | 2.6 | 0.00 | 0.00 | 0.00 | 90 | 1078.4 |
| 20260506032103 | 53 | 147 | 0.0 | 2.6 | 0.00 | 0.00 | 0.00 | 90 | 1078.5 |
| 20260506032003 | 53 | 145 | 0.0 | 2.6 | 0.00 | 0.00 | 0.00 | 90 | 1078.5 |
| 20260506031903 | 53 | 153 | 0.0 | 0.9 | 0.00 | 0.00 | 0.00 | 90 | 1078.3 |
| 20260506031803 | 53 | 160 | 0.0 | 0.9 | 0.00 | 0.00 | 0.00 | 90 | 1078.5 |
| 20260506031703 | 53 | 141 | 0.0 | 0.9 | 0.00 | 0.00 | 0.00 | 90 | 1078.6 |
| 20260506031603 | 53 | 146 | 0.0 | 0.9 | 0.00 | 0.00 | 0.00 | 90 | 1078.7 |
| 20260506031503 | 53 | 0 | 0.0 | 0.0 | 0.00 | 0.00 | 0.00 | 90 | 1078.6 |
| 20260506031403 | 53 | 0 | 0.0 | 0.0 | 0.00 | 0.00 | 0.00 | 90 | 1078.5 |
| 20260506031303 | 53 | 0 | 0.0 | 0.0 | 0.00 | 0.00 | 0.00 | 90 | 1078.3 |
| 20260506031203 | 53 | 0 | 0.0 | 0.0 | 0.00 | 0.00 | 0.00 | 90 | 1078.4 |
| 20260506031118 | 54 | 0 | 0.0 | 0.0 | 0.00 | 0.00 | 0.00 | 90 | 1078.4 |
| 20260506031103 | 54 | 204 | 0.0 | 0.9 | 0.00 | 0.00 | 0.00 | 90 | 1078.5 |
| 20260506031003 | 54 | 210 | 0.0 | 0.9 | 0.00 | 0.00 | 0.00 | 90 | 1078.5 |
| 20260506030803 | 54 | 210 | 0.0 | 0.9 | 0.00 | 0.00 | 0.00 | 90 | 1078.8 |
| 20260506030703 | 54 | 210 | 0.0 | 0.9 | 0.00 | 0.00 | 0.00 | 90 | 1078.4 |
| 20260506030603 | 54 | 210 | 0.0 | 0.9 | 0.00 | 0.00 | 0.00 | 90 | 1078.6 |
| 20260506030503 | 54 | 210 | 0.0 | 0.9 | 0.00 | 0.00 | 0.00 | 90 | 1078.5 |
| 20260506030403 | 54 | 193 | 0.0 | 0.9 | 0.00 | 0.00 | 0.00 | 90 | 1078.3 |
| 20260506030303 | 54 | 161 | 0.0 | 2.6 | 0.00 | 0.00 | 0.00 | 90 | 1078.6 |
| 20260506030217 | 54 | 161 | 0.0 | 2.6 | 0.00 | 0.00 | 0.00 | 90 | 1078.6 |
| 20260506030203 | 54 | 161 | 0.0 | 2.6 | 0.00 | 0.00 | 0.00 | 90 | 1078.5 |
| 20260506030103 | 54 | 158 | 0.0 | 2.6 | 0.00 | 0.00 | 0.00 | 91 | 1078.7 |
| 20260506025903 | 54 | 174 | 0.0 | 2.6 | 0.00 | 0.00 | 0.00 | 91 | 1078.6 |
| 20260506025803 | 54 | 179 | 0.0 | 2.6 | 0.00 | 0.00 | 0.00 | 91 | 1078.5 |
| 20260506025703 | 54 | 183 | 0.0 | 2.6 | 0.00 | 0.00 | 0.00 | 91 | 1078.6 |
| 20260506025603 | 54 | 188 | 0.0 | 2.6 | 0.00 | 0.00 | 0.00 | 91 | 1078.7 |
| 20260506025503 | 54 | 188 | 0.9 | 2.6 | 0.00 | 0.00 | 0.00 | 91 | 1078.7 |
| 20260506025403 | 54 | 191 | 0.9 | 2.6 | 0.00 | 0.00 | 0.00 | 92 | 1078.7 |
| 20260506025305 | 54 | 203 | 0.9 | 1.7 | 0.00 | 0.00 | 0.00 | 91 | 1078.5 |
| 20260506025203 | 54 | 203 | 0.9 | 1.7 | 0.00 | 0.00 | 0.00 | 91 | 1078.8 |
| 20260506025103 | 54 | 205 | 0.9 | 1.7 | 0.00 | 0.00 | 0.00 | 91 | 1078.8 |
| 20260506025004 | 54 | 203 | 0.9 | 1.7 | 0.00 | 0.00 | 0.00 | 91 | 1078.6 |
| 20260506024903 | 54 | 200 | 0.9 | 1.7 | 0.00 | 0.00 | 0.00 | 91 | 1078.9 |
| 20260506024803 | 54 | 202 | 0.9 | 2.6 | 0.00 | 0.00 | 0.00 | 91 | 1078.6 |
| 20260506024703 | 54 | 202 | 0.9 | 3.5 | 0.00 | 0.00 | 0.00 | 91 | 1078.9 |
| 20260506024603 | 54 | 202 | 0.9 | 3.5 | 0.00 | 0.00 | 0.00 | 91 | 1078.7 |
| 20260506024503 | 54 | 206 | 0.9 | 3.5 | 0.00 | 0.00 | 0.00 | 91 | 1078.7 |
| 20260506024403 | 54 | 202 | 0.9 | 3.5 | 0.00 | 0.00 | 0.00 | 91 | 1078.4 |
| 20260506024303 | 54 | 199 | 0.9 | 3.5 | 0.00 | 0.00 | 0.00 | 92 | 1078.7 |
| 20260506024203 | 54 | 197 | 0.9 | 3.5 | 0.00 | 0.00 | 0.00 | 92 | 1078.7 |
| 20260506024103 | 54 | 190 | 0.9 | 3.5 | 0.00 | 0.00 | 0.00 | 92 | 1078.6 |
| 20260506023903 | 54 | 184 | 1.7 | 3.5 | 0.00 | 0.00 | 0.00 | 92 | 1078.8 |
| 20260506023803 | 54 | 184 | 1.7 | 3.5 | 0.00 | 0.00 | 0.00 | 92 | 1078.6 |
| 20260506023703 | 54 | 179 | 0.9 | 3.5 | 0.00 | 0.00 | 0.00 | 92 | 1078.6 |
| 20260506023503 | 54 | 170 | 0.9 | 3.5 | 0.00 | 0.00 | 0.00 | 92 | 1078.9 |
| 20260506023403 | 54 | 173 | 0.9 | 3.5 | 0.00 | 0.00 | 0.00 | 91 | 1078.4 |
| 20260506023203 | 53 | 176 | 0.9 | 3.5 | 0.00 | 0.00 | 0.00 | 91 | 1078.7 |
| 20260506023103 | 53 | 186 | 0.9 | 3.5 | 0.00 | 0.00 | 0.00 | 90 | 1078.7 |
| 20260506023003 | 53 | 196 | 0.9 | 1.7 | 0.00 | 0.00 | 0.00 | 90 | 1078.7 |
| 20260506022917 | 53 | 200 | 0.9 | 1.7 | 0.00 | 0.00 | 0.00 | 90 | 1078.7 |
| 20260506022903 | 53 | 200 | 0.9 | 1.7 | 0.00 | 0.00 | 0.00 | 90 | 1078.5 |
| 20260506022803 | 53 | 196 | 0.0 | 1.7 | 0.00 | 0.00 | 0.00 | 89 | 1078.9 |
| 20260506022603 | 53 | 196 | 0.0 | 1.7 | 0.00 | 0.00 | 0.00 | 89 | 1078.8 |
| 20260506022503 | 53 | 203 | 0.0 | 1.7 | 0.00 | 0.00 | 0.00 | 89 | 1078.4 |
| 20260506022403 | 53 | 205 | 0.0 | 1.7 | 0.00 | 0.00 | 0.00 | 88 | 1078.6 |
| 20260506022305 | 53 | 205 | 0.0 | 1.7 | 0.00 | 0.00 | 0.00 | 88 | 1078.9 |
| 20260506022203 | 53 | 205 | 0.0 | 1.7 | 0.00 | 0.00 | 0.00 | 88 | 1078.5 |
| 20260506022103 | 53 | 205 | 0.0 | 1.7 | 0.00 | 0.00 | 0.00 | 88 | 1078.7 |
| 20260506022003 | 53 | 204 | 0.0 | 1.7 | 0.00 | 0.00 | 0.00 | 88 | 1078.8 |
| 20260506021903 | 53 | 207 | 0.0 | 1.7 | 0.00 | 0.00 | 0.00 | 88 | 1078.5 |
| 20260506021817 | 53 | 207 | 0.0 | 1.7 | 0.00 | 0.00 | 0.00 | 88 | 1078.5 |
| 20260506021803 | 53 | 207 | 0.0 | 1.7 | 0.00 | 0.00 | 0.00 | 88 | 1078.6 |
| 20260506021703 | 53 | 208 | 0.0 | 1.7 | 0.00 | 0.00 | 0.00 | 88 | 1078.6 |
| 20260506021503 | 53 | 212 | 0.0 | 1.7 | 0.00 | 0.00 | 0.00 | 88 | 1078.4 |
| 20260506021403 | 53 | 0 | 0.0 | 0.0 | 0.00 | 0.00 | 0.00 | 88 | 1078.5 |
| 20260506021303 | 53 | 0 | 0.0 | 0.0 | 0.00 | 0.00 | 0.00 | 88 | 1078.6 |
| 20260506021203 | 53 | 0 | 0.0 | 0.0 | 0.00 | 0.00 | 0.00 | 88 | 1078.6 |
| 20260506021103 | 53 | 0 | 0.0 | 0.0 | 0.00 | 0.00 | 0.00 | 88 | 1078.6 |
| 20260506020903 | 54 | 0 | 0.0 | 0.0 | 0.00 | 0.00 | 0.00 | 87 | 1078.4 |
| 20260506020817 | 54 | 0 | 0.0 | 0.0 | 0.00 | 0.00 | 0.00 | 87 | 1078.4 |
| 20260506020803 | 54 | 0 | 0.0 | 0.0 | 0.00 | 0.00 | 0.00 | 87 | 1078.5 |
| 20260506020703 | 54 | 0 | 0.0 | 0.0 | 0.00 | 0.00 | 0.00 | 87 | 1078.5 |
| 20260506020503 | 54 | 0 | 0.0 | 0.0 | 0.00 | 0.00 | 0.00 | 88 | 1078.3 |
| 20260506020403 | 54 | 277 | 0.0 | 0.9 | 0.00 | 0.00 | 0.00 | 88 | 1078.1 |
| 20260506020303 | 54 | 289 | 0.0 | 0.9 | 0.00 | 0.00 | 0.00 | 88 | 1078.2 |
| 20260506020203 | 54 | 291 | 0.0 | 1.7 | 0.00 | 0.00 | 0.00 | 88 | 1078.3 |
| 20260506020117 | 54 | 311 | 0.0 | 1.7 | 0.00 | 0.00 | 0.00 | 88 | 1078.3 |
| 20260506020103 | 54 | 310 | 0.0 | 1.7 | 0.00 | 0.00 | 0.00 | 88 | 1078.3 |
| 20260506020003 | 55 | 290 | 0.0 | 2.6 | 0.00 | 0.00 | 0.00 | 88 | 1078.1 |
| 20260506015803 | 55 | 273 | 0.9 | 3.5 | 0.00 | 0.00 | 0.00 | 88 | 1078.2 |
| 20260506015703 | 55 | 270 | 0.9 | 3.5 | 0.00 | 0.00 | 0.00 | 88 | 1078.1 |
| 20260506015603 | 55 | 274 | 0.9 | 3.5 | 0.00 | 0.00 | 0.00 | 89 | 1078.3 |
| 20260506015517 | 55 | 274 | 0.9 | 3.5 | 0.00 | 0.00 | 0.00 | 89 | 1078.3 |
| 20260506015503 | 55 | 274 | 0.9 | 3.5 | 0.00 | 0.00 | 0.00 | 89 | 1078.2 |
| 20260506015418 | 55 | 274 | 0.9 | 3.5 | 0.00 | 0.00 | 0.00 | 89 | 1078.2 |
| 20260506015403 | 55 | 273 | 0.9 | 3.5 | 0.00 | 0.00 | 0.00 | 89 | 1078.1 |
| 20260506015103 | 55 | 262 | 1.7 | 5.2 | 0.00 | 0.00 | 0.00 | 89 | 1078.1 |
| 20260506015018 | 55 | 262 | 1.7 | 5.2 | 0.00 | 0.00 | 0.00 | 89 | 1078.1 |
| 20260506015003 | 55 | 263 | 1.7 | 5.2 | 0.00 | 0.00 | 0.00 | 89 | 1078.2 |
| 20260506014903 | 55 | 266 | 1.7 | 5.2 | 0.00 | 0.00 | 0.00 | 88 | 1078.3 |
| 20260506014703 | 55 | 269 | 1.7 | 7.0 | 0.00 | 0.00 | 0.00 | 89 | 1078.2 |
| 20260506014603 | 55 | 269 | 1.7 | 7.0 | 0.00 | 0.00 | 0.00 | 89 | 1078.2 |
| 20260506014503 | 55 | 270 | 1.7 | 7.0 | 0.00 | 0.00 | 0.00 | 89 | 1078.1 |
| 20260506014418 | 55 | 270 | 2.6 | 7.0 | 0.00 | 0.00 | 0.00 | 89 | 1078.1 |
| 20260506014403 | 55 | 269 | 2.6 | 7.0 | 0.00 | 0.00 | 0.00 | 89 | 1078.4 |
| 20260506014318 | 55 | 271 | 2.6 | 7.0 | 0.00 | 0.00 | 0.00 | 89 | 1078.4 |
| 20260506014303 | 55 | 273 | 2.6 | 7.0 | 0.00 | 0.00 | 0.00 | 89 | 1078.4 |
| 20260506014003 | 56 | 272 | 2.6 | 7.0 | 0.00 | 0.00 | 0.00 | 89 | 1078.4 |
| 20260506013903 | 56 | 271 | 2.6 | 7.0 | 0.00 | 0.00 | 0.00 | 89 | 1078.4 |
| 20260506013803 | 56 | 272 | 2.6 | 7.0 | 0.00 | 0.00 | 0.00 | 89 | 1078.4 |
| 20260506013703 | 56 | 270 | 2.6 | 7.0 | 0.00 | 0.00 | 0.00 | 89 | 1078.4 |
| 20260506013603 | 56 | 268 | 1.7 | 7.0 | 0.00 | 0.00 | 0.00 | 89 | 1078.3 |
| 20260506013503 | 56 | 266 | 1.7 | 7.0 | 0.00 | 0.00 | 0.00 | 89 | 1078.2 |
| 20260506013418 | 56 | 265 | 1.7 | 6.1 | 0.00 | 0.00 | 0.00 | 89 | 1078.2 |
| 20260506013403 | 56 | 268 | 1.7 | 6.1 | 0.00 | 0.00 | 0.00 | 89 | 1078.3 |
| 20260506013303 | 56 | 264 | 0.9 | 3.5 | 0.00 | 0.00 | 0.00 | 88 | 1078.1 |
| 20260506013103 | 56 | 267 | 0.9 | 2.6 | 0.00 | 0.00 | 0.00 | 88 | 1078.2 |
| 20260506013003 | 56 | 264 | 0.9 | 3.5 | 0.00 | 0.00 | 0.00 | 87 | 1078.3 |
| 20260506012903 | 56 | 265 | 0.9 | 3.5 | 0.00 | 0.00 | 0.00 | 88 | 1078.1 |
| 20260506012817 | 56 | 266 | 1.7 | 3.5 | 0.00 | 0.00 | 0.00 | 88 | 1078.1 |
| 20260506012803 | 56 | 267 | 1.7 | 3.5 | 0.00 | 0.00 | 0.00 | 88 | 1078.3 |
| 20260506012718 | 56 | 268 | 1.7 | 3.5 | 0.00 | 0.00 | 0.00 | 88 | 1078.3 |
| 20260506012703 | 56 | 269 | 1.7 | 3.5 | 0.00 | 0.00 | 0.00 | 88 | 1078.2 |
| 20260506012403 | 56 | 271 | 1.7 | 3.5 | 0.00 | 0.00 | 0.00 | 88 | 1078.4 |
| 20260506012307 | 56 | 272 | 1.7 | 3.5 | 0.00 | 0.00 | 0.00 | 89 | 1078.4 |
| 20260506012217 | 56 | 274 | 2.6 | 3.5 | 0.00 | 0.00 | 0.00 | 89 | 1078.4 |
| 20260506012203 | 56 | 275 | 2.6 | 3.5 | 0.00 | 0.00 | 0.00 | 88 | 1078.3 |
| 20260506012103 | 56 | 281 | 2.6 | 5.2 | 0.00 | 0.00 | 0.00 | 88 | 1078.3 |
| 20260506011903 | 56 | 290 | 2.6 | 5.2 | 0.00 | 0.00 | 0.00 | 88 | 1078.2 |
| 20260506011803 | 56 | 291 | 2.6 | 5.2 | 0.00 | 0.00 | 0.00 | 89 | 1078.2 |
| 20260506011703 | 56 | 292 | 2.6 | 6.1 | 0.00 | 0.00 | 0.00 | 88 | 1078.0 |
| 20260506011603 | 56 | 295 | 2.6 | 6.1 | 0.00 | 0.00 | 0.00 | 87 | 1078.4 |
| 20260506011503 | 56 | 301 | 2.6 | 6.1 | 0.00 | 0.00 | 0.00 | 87 | 1078.1 |
| 20260506011403 | 56 | 304 | 2.6 | 6.1 | 0.00 | 0.00 | 0.00 | 87 | 1078.1 |
| 20260506011303 | 56 | 310 | 2.6 | 6.1 | 0.00 | 0.00 | 0.00 | 87 | 1078.3 |
| 20260506011216 | 56 | 313 | 2.6 | 6.1 | 0.00 | 0.00 | 0.00 | 87 | 1078.3 |
| 20260506011203 | 56 | 313 | 2.6 | 6.1 | 0.00 | 0.00 | 0.00 | 87 | 1078.2 |
| 20260506011103 | 56 | 313 | 2.6 | 6.1 | 0.00 | 0.00 | 0.00 | 87 | 1078.1 |
| 20260506010903 | 56 | 310 | 2.6 | 6.1 | 0.00 | 0.00 | 0.00 | 87 | 1078.2 |
| 20260506010803 | 56 | 311 | 2.6 | 6.1 | 0.00 | 0.00 | 0.00 | 87 | 1078.1 |
| 20260506010703 | 56 | 313 | 2.6 | 6.1 | 0.00 | 0.00 | 0.00 | 87 | 1078.0 |
| 20260506010603 | 56 | 321 | 2.6 | 6.1 | 0.00 | 0.00 | 0.00 | 87 | 1078.2 |
| 20260506010503 | 56 | 326 | 2.6 | 6.1 | 0.00 | 0.00 | 0.00 | 87 | 1078.2 |
| 20260506010403 | 56 | 330 | 2.6 | 6.1 | 0.00 | 0.00 | 0.00 | 86 | 1078.2 |
| 20260506010318 | 56 | 328 | 2.6 | 6.1 | 0.00 | 0.00 | 0.00 | 87 | 1078.2 |
| 20260506010303 | 56 | 329 | 2.6 | 6.1 | 0.00 | 0.00 | 0.00 | 87 | 1078.2 |
| 20260506010203 | 56 | 330 | 2.6 | 6.1 | 0.00 | 0.00 | 0.00 | 86 | 1078.1 |
| 20260506010003 | 56 | 336 | 1.7 | 6.1 | 0.00 | 0.00 | 0.00 | 86 | 1078.2 |
| 20260506005903 | 56 | 333 | 2.6 | 6.1 | 0.00 | 0.00 | 0.00 | 86 | 1078.3 |
| 20260506005803 | 56 | 330 | 2.6 | 6.1 | 0.00 | 0.00 | 0.00 | 86 | 1078.2 |
| 20260506005703 | 56 | 329 | 2.6 | 6.1 | 0.00 | 0.00 | 0.00 | 86 | 1078.4 |
| 20260506005618 | 56 | 324 | 1.7 | 6.1 | 0.00 | 0.00 | 0.00 | 86 | 1078.1 |
| 20260506005603 | 56 | 323 | 1.7 | 6.1 | 0.00 | 0.00 | 0.00 | 86 | 1078.1 |
| 20260506005503 | 56 | 306 | 1.7 | 6.1 | 0.00 | 0.00 | 0.00 | 86 | 1078.1 |
| 20260506005305 | 56 | 288 | 1.7 | 6.1 | 0.00 | 0.00 | 0.00 | 83 | 1078.1 |
| 20260506005203 | 56 | 282 | 2.6 | 6.1 | 0.00 | 0.00 | 0.00 | 84 | 1078.4 |
| 20260506005117 | 56 | 284 | 2.6 | 7.0 | 0.00 | 0.00 | 0.00 | 84 | 1078.2 |
| 20260506005103 | 56 | 283 | 2.6 | 7.0 | 0.00 | 0.00 | 0.00 | 84 | 1078.2 |
| 20260506005003 | 56 | 283 | 2.6 | 7.0 | 0.00 | 0.00 | 0.00 | 84 | 1078.2 |
| 20260506004803 | 57 | 285 | 3.5 | 7.0 | 0.00 | 0.00 | 0.00 | 84 | 1078.2 |
| 20260506004703 | 57 | 286 | 3.5 | 7.0 | 0.00 | 0.00 | 0.00 | 84 | 1078.1 |
| 20260506004603 | 57 | 290 | 3.5 | 7.0 | 0.00 | 0.00 | 0.00 | 84 | 1078.4 |
| 20260506004504 | 57 | 287 | 3.5 | 7.8 | 0.00 | 0.00 | 0.00 | 85 | 1078.3 |
| 20260506004403 | 57 | 284 | 3.5 | 7.8 | 0.00 | 0.00 | 0.00 | 84 | 1078.4 |
| 20260506004303 | 57 | 280 | 3.5 | 7.8 | 0.00 | 0.00 | 0.00 | 84 | 1078.3 |
| 20260506004203 | 57 | 279 | 3.5 | 7.8 | 0.00 | 0.00 | 0.00 | 83 | 1078.2 |
| 20260506004103 | 57 | 277 | 3.5 | 7.8 | 0.00 | 0.00 | 0.00 | 83 | 1078.1 |
| 20260506004003 | 56 | 274 | 3.5 | 7.8 | 0.00 | 0.00 | 0.00 | 82 | 1078.1 |
| 20260506003903 | 56 | 270 | 3.5 | 7.8 | 0.00 | 0.00 | 0.00 | 83 | 1078.1 |
| 20260506003803 | 57 | 269 | 3.5 | 7.8 | 0.00 | 0.00 | 0.00 | 82 | 1078.3 |
| 20260506003703 | 56 | 269 | 3.5 | 7.8 | 0.00 | 0.00 | 0.00 | 82 | 1078.2 |
| 20260506003603 | 57 | 266 | 3.5 | 7.8 | 0.00 | 0.00 | 0.00 | 81 | 1078.3 |
| 20260506003503 | 57 | 271 | 3.5 | 7.8 | 0.00 | 0.00 | 0.00 | 81 | 1078.1 |
| 20260506003403 | 56 | 274 | 4.3 | 9.6 | 0.00 | 0.00 | 0.00 | 82 | 1078.2 |
| 20260506003303 | 56 | 278 | 4.3 | 11.3 | 0.00 | 0.00 | 0.00 | 81 | 1078.2 |
| 20260506003203 | 57 | 278 | 5.2 | 11.3 | 0.00 | 0.00 | 0.00 | 81 | 1078.2 |
| 20260506003103 | 57 | 279 | 5.2 | 11.3 | 0.00 | 0.00 | 0.00 | 81 | 1078.1 |
| 20260506002903 | 57 | 281 | 5.2 | 11.3 | 0.00 | 0.00 | 0.00 | 81 | 1078.2 |
| 20260506002803 | 56 | 282 | 5.2 | 11.3 | 0.00 | 0.00 | 0.00 | 81 | 1078.3 |
| 20260506002703 | 56 | 282 | 4.3 | 11.3 | 0.00 | 0.00 | 0.00 | 80 | 1078.2 |
| 20260506002603 | 56 | 282 | 4.3 | 11.3 | 0.00 | 0.00 | 0.00 | 81 | 1077.9 |
| 20260506002504 | 56 | 280 | 4.3 | 11.3 | 0.00 | 0.00 | 0.00 | 81 | 1078.0 |
| 20260506002417 | 56 | 280 | 3.5 | 11.3 | 0.00 | 0.00 | 0.00 | 80 | 1078.0 |
| 20260506002403 | 56 | 280 | 3.5 | 11.3 | 0.00 | 0.00 | 0.00 | 80 | 1078.3 |
| 20260506002305 | 56 | 280 | 3.5 | 7.8 | 0.00 | 0.00 | 0.00 | 78 | 1078.0 |
| 20260506002103 | 56 | 283 | 2.6 | 5.2 | 0.00 | 0.00 | 0.00 | 77 | 1078.0 |
| 20260506002003 | 56 | 282 | 2.6 | 5.2 | 0.00 | 0.00 | 0.00 | 76 | 1078.1 |
| 20260506001903 | 56 | 283 | 1.7 | 5.2 | 0.00 | 0.00 | 0.00 | 75 | 1078.2 |
| 20260506001803 | 56 | 286 | 1.7 | 5.2 | 0.00 | 0.00 | 0.00 | 74 | 1078.2 |
| 20260506001703 | 56 | 285 | 1.7 | 5.2 | 0.00 | 0.00 | 0.00 | 75 | 1078.0 |
| 20260506001518 | 56 | 285 | 1.7 | 5.2 | 0.00 | 0.00 | 0.00 | 75 | 1078.1 |
| 20260506001503 | 56 | 286 | 1.7 | 5.2 | 0.00 | 0.00 | 0.00 | 74 | 1078.1 |
| 20260506001403 | 56 | 285 | 1.7 | 5.2 | 0.00 | 0.00 | 0.00 | 75 | 1078.1 |
| 20260506001218 | 56 | 284 | 1.7 | 5.2 | 0.00 | 0.00 | 0.00 | 74 | 1078.0 |
| 20260506001203 | 56 | 284 | 1.7 | 5.2 | 0.00 | 0.00 | 0.00 | 74 | 1078.1 |
| 20260506001103 | 56 | 280 | 1.7 | 5.2 | 0.00 | 0.00 | 0.00 | 74 | 1078.0 |
| 20260506000903 | 56 | 280 | 0.9 | 5.2 | 0.00 | 0.00 | 0.00 | 74 | 1077.9 |
| 20260506000803 | 56 | 278 | 0.9 | 3.5 | 0.00 | 0.00 | 0.00 | 74 | 1078.1 |
| 20260506000717 | 56 | 281 | 0.9 | 5.2 | 0.00 | 0.00 | 0.00 | 73 | 1078.1 |
| 20260506000703 | 56 | 283 | 0.9 | 5.2 | 0.00 | 0.00 | 0.00 | 73 | 1078.0 |
| 20260506000603 | 56 | 286 | 0.9 | 5.2 | 0.00 | 0.00 | 0.00 | 72 | 1078.1 |
| 20260506000403 | 56 | 288 | 0.9 | 5.2 | 0.00 | 0.00 | 0.00 | 73 | 1077.8 |
| 20260506000303 | 56 | 294 | 0.9 | 5.2 | 0.00 | 0.00 | 0.00 | 72 | 1077.9 |
| 20260506000219 | 56 | 293 | 0.9 | 5.2 | 0.00 | 0.00 | 0.00 | 72 | 1077.9 |
| 20260506000204 | 56 | 293 | 0.9 | 5.2 | 0.00 | 0.00 | 0.00 | 72 | 1078.0 |
| 20260505235903 | 56 | 294 | 0.9 | 5.2 | 0.00 | 0.00 | 0.00 | 72 | 1078.0 |
| 20260505235803 | 56 | 292 | 0.9 | 5.2 | 0.00 | 0.00 | 0.00 | 72 | 1077.9 |
| 20260505235703 | 56 | 291 | 0.0 | 3.5 | 0.00 | 0.00 | 0.00 | 72 | 1077.9 |
| 20260505235618 | 56 | 291 | 0.0 | 1.7 | 0.00 | 0.00 | 0.00 | 72 | 1077.9 |
| 20260505235603 | 56 | 288 | 0.0 | 1.7 | 0.00 | 0.00 | 0.00 | 71 | 1077.9 |
| 20260505235518 | 56 | 285 | 0.0 | 1.7 | 0.00 | 0.00 | 0.00 | 71 | 1077.9 |
| 20260505235503 | 56 | 285 | 0.0 | 1.7 | 0.00 | 0.00 | 0.00 | 71 | 1078.1 |
| 20260505235203 | 56 | 296 | 0.0 | 1.7 | 0.00 | 0.00 | 0.00 | 72 | 1078.1 |
| 20260505235103 | 56 | 294 | 0.0 | 1.7 | 0.00 | 0.00 | 0.00 | 72 | 1078.0 |
| 20260505235003 | 56 | 324 | 0.0 | 1.7 | 0.00 | 0.00 | 0.00 | 72 | 1078.1 |
| 20260505234903 | 56 | 325 | 0.0 | 1.7 | 0.00 | 0.00 | 0.00 | 72 | 1077.9 |
| 20260505234816 | 56 | 327 | 0.0 | 1.7 | 0.00 | 0.00 | 0.00 | 71 | 1077.9 |
| 20260505234803 | 56 | 327 | 0.0 | 1.7 | 0.00 | 0.00 | 0.00 | 71 | 1077.8 |
| 20260505234703 | 56 | 323 | 0.0 | 1.7 | 0.00 | 0.00 | 0.00 | 70 | 1077.8 |
| 20260505234503 | 56 | 312 | 0.0 | 1.7 | 0.00 | 0.00 | 0.00 | 70 | 1077.8 |
| 20260505234417 | 56 | 307 | 0.0 | 1.7 | 0.00 | 0.00 | 0.00 | 70 | 1077.8 |
| 20260505234403 | 56 | 305 | 0.0 | 1.7 | 0.00 | 0.00 | 0.00 | 70 | 1077.9 |
| 20260505234303 | 56 | 304 | 0.0 | 1.7 | 0.00 | 0.00 | 0.00 | 70 | 1078.0 |
| 20260505234103 | 56 | 298 | 0.0 | 1.7 | 0.00 | 0.00 | 0.00 | 70 | 1078.2 |
| 20260505234003 | 56 | 265 | 0.0 | 1.7 | 0.00 | 0.00 | 0.00 | 70 | 1078.0 |
| 20260505233918 | 56 | 252 | 0.0 | 1.7 | 0.00 | 0.00 | 0.00 | 70 | 1078.0 |
| 20260505233903 | 56 | 248 | 0.0 | 1.7 | 0.00 | 0.00 | 0.00 | 70 | 1078.4 |
| 20260505233803 | 56 | 238 | 0.0 | 1.7 | 0.00 | 0.00 | 0.00 | 70 | 1078.4 |
| 20260505233603 | 56 | 237 | 0.9 | 1.7 | 0.00 | 0.00 | 0.00 | 70 | 1078.1 |
| 20260505233503 | 56 | 235 | 0.9 | 1.7 | 0.00 | 0.00 | 0.00 | 69 | 1078.3 |
| 20260505233403 | 56 | 235 | 0.0 | 1.7 | 0.00 | 0.00 | 0.00 | 70 | 1078.2 |
| 20260505233303 | 56 | 236 | 0.9 | 1.7 | 0.00 | 0.00 | 0.00 | 70 | 1078.3 |
| 20260505233203 | 56 | 236 | 0.9 | 1.7 | 0.00 | 0.00 | 0.00 | 70 | 1078.3 |
| 20260505233103 | 56 | 235 | 0.9 | 1.7 | 0.00 | 0.00 | 0.00 | 70 | 1078.2 |
| 20260505233003 | 56 | 234 | 0.9 | 1.7 | 0.00 | 0.00 | 0.00 | 70 | 1078.1 |
| 20260505232903 | 56 | 231 | 0.9 | 1.7 | 0.00 | 0.00 | 0.00 | 70 | 1078.2 |
| 20260505232803 | 56 | 229 | 0.0 | 1.7 | 0.00 | 0.00 | 0.00 | 71 | 1078.3 |
| 20260505232603 | 56 | 227 | 0.0 | 1.7 | 0.00 | 0.00 | 0.00 | 68 | 1078.1 |
| 20260505232503 | 56 | 224 | 0.0 | 1.7 | 0.00 | 0.00 | 0.00 | 68 | 1078.4 |
| 20260505232403 | 56 | 224 | 0.9 | 1.7 | 0.00 | 0.00 | 0.00 | 69 | 1078.2 |
| 20260505232305 | 56 | 221 | 0.0 | 1.7 | 0.00 | 0.00 | 0.00 | 69 | 1078.0 |
| 20260505232203 | 57 | 218 | 0.0 | 1.7 | 0.00 | 0.00 | 0.00 | 69 | 1078.2 |
| 20260505232103 | 57 | 203 | 0.0 | 1.7 | 0.00 | 0.00 | 0.00 | 69 | 1077.9 |
| 20260505232003 | 57 | 185 | 0.0 | 1.7 | 0.00 | 0.00 | 0.00 | 69 | 1078.2 |
| 20260505231903 | 57 | 178 | 0.0 | 1.7 | 0.00 | 0.00 | 0.00 | 69 | 1078.1 |
| 20260505231803 | 57 | 178 | 0.0 | 1.7 | 0.00 | 0.00 | 0.00 | 68 | 1078.1 |
| 20260505231703 | 57 | 170 | 0.9 | 3.5 | 0.00 | 0.00 | 0.00 | 68 | 1078.2 |
| 20260505231603 | 57 | 150 | 0.9 | 3.5 | 0.00 | 0.00 | 0.00 | 68 | 1078.0 |
| 20260505231503 | 57 | 141 | 0.9 | 5.2 | 0.00 | 0.00 | 0.00 | 68 | 1077.9 |
| 20260505231403 | 57 | 133 | 0.9 | 5.2 | 0.00 | 0.00 | 0.00 | 68 | 1078.0 |
| 20260505231317 | 57 | 121 | 0.9 | 5.2 | 0.00 | 0.00 | 0.00 | 68 | 1078.1 |
| 20260505231303 | 57 | 120 | 0.9 | 5.2 | 0.00 | 0.00 | 0.00 | 68 | 1078.1 |
| 20260505231203 | 57 | 119 | 0.9 | 5.2 | 0.00 | 0.00 | 0.00 | 68 | 1078.2 |
| 20260505231003 | 57 | 115 | 1.7 | 5.2 | 0.00 | 0.00 | 0.00 | 68 | 1077.9 |
| 20260505230918 | 57 | 117 | 1.7 | 5.2 | 0.00 | 0.00 | 0.00 | 69 | 1077.9 |
| 20260505230903 | 57 | 118 | 1.7 | 5.2 | 0.00 | 0.00 | 0.00 | 69 | 1077.9 |
| 20260505230803 | 57 | 118 | 1.7 | 5.2 | 0.00 | 0.00 | 0.00 | 68 | 1078.0 |
| 20260505230603 | 57 | 117 | 1.7 | 5.2 | 0.00 | 0.00 | 0.00 | 68 | 1078.0 |
| 20260505230503 | 57 | 115 | 1.7 | 5.2 | 0.00 | 0.00 | 0.00 | 68 | 1078.2 |
| 20260505230403 | 57 | 118 | 1.7 | 5.2 | 0.00 | 0.00 | 0.00 | 67 | 1077.7 |
| 20260505230303 | 57 | 123 | 1.7 | 5.2 | 0.00 | 0.00 | 0.00 | 67 | 1078.0 |
| 20260505230203 | 57 | 122 | 1.7 | 5.2 | 0.00 | 0.00 | 0.00 | 67 | 1077.9 |
| 20260505230003 | 57 | 126 | 0.9 | 5.2 | 0.00 | 0.00 | 0.00 | 67 | 1077.8 |
| 20260505225903 | 57 | 122 | 0.9 | 5.2 | 0.00 | 0.00 | 0.00 | 67 | 1077.8 |
| 20260505225808 | 57 | 120 | 0.9 | 5.2 | 0.00 | 0.00 | 0.00 | 68 | 1077.8 |
| 20260505225703 | 57 | 118 | 0.9 | 5.2 | 0.00 | 0.00 | 0.00 | 67 | 1077.9 |
| 20260505225603 | 57 | 111 | 0.9 | 5.2 | 0.00 | 0.00 | 0.00 | 68 | 1077.8 |
| 20260505225503 | 57 | 104 | 0.9 | 3.5 | 0.00 | 0.00 | 0.00 | 67 | 1077.8 |
| 20260505225403 | 57 | 91 | 0.9 | 3.5 | 0.00 | 0.00 | 0.00 | 67 | 1077.8 |
| 20260505225305 | 57 | 90 | 0.9 | 6.1 | 0.00 | 0.00 | 0.00 | 67 | 1077.7 |
| 20260505225203 | 57 | 95 | 0.9 | 6.1 | 0.00 | 0.00 | 0.00 | 67 | 1077.7 |
| 20260505225017 | 57 | 99 | 1.7 | 6.1 | 0.00 | 0.00 | 0.00 | 67 | 1077.8 |
| 20260505225003 | 57 | 98 | 1.7 | 6.1 | 0.00 | 0.00 | 0.00 | 67 | 1077.8 |
| 20260505224917 | 57 | 95 | 1.7 | 6.1 | 0.00 | 0.00 | 0.00 | 67 | 1077.8 |
| 20260505224903 | 57 | 94 | 1.7 | 6.1 | 0.00 | 0.00 | 0.00 | 67 | 1077.7 |
| 20260505224818 | 57 | 91 | 1.7 | 6.1 | 0.00 | 0.00 | 0.00 | 67 | 1077.7 |
| 20260505224617 | 57 | 92 | 1.7 | 6.1 | 0.00 | 0.00 | 0.00 | 67 | 1077.5 |
| 20260505224503 | 57 | 89 | 1.7 | 6.1 | 0.00 | 0.00 | 0.00 | 67 | 1077.7 |
| 20260505224303 | 57 | 96 | 2.6 | 7.8 | 0.00 | 0.00 | 0.00 | 67 | 1077.6 |
| 20260505224203 | 57 | 95 | 2.6 | 7.8 | 0.00 | 0.00 | 0.00 | 67 | 1077.6 |
| 20260505224103 | 57 | 94 | 2.6 | 7.8 | 0.00 | 0.00 | 0.00 | 67 | 1077.6 |
| 20260505223903 | 57 | 92 | 2.6 | 7.8 | 0.00 | 0.00 | 0.00 | 67 | 1077.6 |
| 20260505223818 | 57 | 91 | 2.6 | 7.8 | 0.00 | 0.00 | 0.00 | 67 | 1077.6 |
| 20260505223803 | 57 | 92 | 2.6 | 7.8 | 0.00 | 0.00 | 0.00 | 67 | 1077.8 |
| 20260505223703 | 57 | 91 | 2.6 | 7.8 | 0.00 | 0.00 | 0.00 | 67 | 1077.6 |
| 20260505223503 | 57 | 93 | 2.6 | 7.8 | 0.00 | 0.00 | 0.00 | 66 | 1077.7 |
| 20260505223403 | 57 | 93 | 2.6 | 7.0 | 0.00 | 0.00 | 0.00 | 67 | 1077.8 |
| 20260505223303 | 57 | 93 | 2.6 | 7.0 | 0.00 | 0.00 | 0.00 | 66 | 1077.6 |
| 20260505223203 | 57 | 91 | 2.6 | 7.0 | 0.00 | 0.00 | 0.00 | 66 | 1077.8 |
| 20260505223103 | 57 | 89 | 2.6 | 7.0 | 0.00 | 0.00 | 0.00 | 66 | 1078.0 |
| 20260505223003 | 57 | 93 | 2.6 | 6.1 | 0.00 | 0.00 | 0.00 | 66 | 1077.7 |
| 20260505222903 | 57 | 92 | 1.7 | 6.1 | 0.00 | 0.00 | 0.00 | 66 | 1077.9 |
| 20260505222818 | 57 | 92 | 1.7 | 6.1 | 0.00 | 0.00 | 0.00 | 66 | 1077.9 |
| 20260505222803 | 57 | 90 | 1.7 | 6.1 | 0.00 | 0.00 | 0.00 | 66 | 1077.8 |
| 20260505222703 | 57 | 92 | 2.6 | 6.1 | 0.00 | 0.00 | 0.00 | 66 | 1077.7 |
| 20260505222503 | 57 | 91 | 2.6 | 6.1 | 0.00 | 0.00 | 0.00 | 66 | 1077.8 |
| 20260505222418 | 57 | 87 | 2.6 | 6.1 | 0.00 | 0.00 | 0.00 | 66 | 1077.8 |
| 20260505222403 | 57 | 86 | 2.6 | 6.1 | 0.00 | 0.00 | 0.00 | 66 | 1077.7 |
| 20260505222305 | 57 | 85 | 2.6 | 6.1 | 0.00 | 0.00 | 0.00 | 66 | 1077.6 |
| 20260505222103 | 57 | 84 | 3.5 | 8.7 | 0.00 | 0.00 | 0.00 | 66 | 1077.8 |
| 20260505222003 | 57 | 84 | 3.5 | 8.7 | 0.00 | 0.00 | 0.00 | 66 | 1077.6 |
| 20260505221903 | 57 | 85 | 3.5 | 8.7 | 0.00 | 0.00 | 0.00 | 66 | 1077.6 |
| 20260505221818 | 57 | 84 | 4.3 | 8.7 | 0.00 | 0.00 | 0.00 | 66 | 1077.6 |
| 20260505221803 | 57 | 85 | 4.3 | 8.7 | 0.00 | 0.00 | 0.00 | 66 | 1077.6 |
| 20260505221703 | 57 | 82 | 4.3 | 8.7 | 0.00 | 0.00 | 0.00 | 66 | 1077.5 |
| 20260505221518 | 57 | 81 | 3.5 | 8.7 | 0.00 | 0.00 | 0.00 | 66 | 1077.6 |
| 20260505221503 | 57 | 81 | 3.5 | 8.7 | 0.00 | 0.00 | 0.00 | 66 | 1077.5 |
| 20260505221403 | 57 | 80 | 3.5 | 8.7 | 0.00 | 0.00 | 0.00 | 66 | 1077.5 |
| 20260505221203 | 57 | 79 | 3.5 | 7.8 | 0.00 | 0.00 | 0.00 | 66 | 1077.6 |
| 20260505221103 | 57 | 78 | 3.5 | 7.8 | 0.00 | 0.00 | 0.00 | 66 | 1077.4 |
| 20260505221003 | 57 | 77 | 2.6 | 7.8 | 0.00 | 0.00 | 0.00 | 66 | 1077.6 |
| 20260505220903 | 57 | 78 | 2.6 | 7.8 | 0.00 | 0.00 | 0.00 | 66 | 1077.5 |
| 20260505220803 | 57 | 88 | 2.6 | 8.7 | 0.00 | 0.00 | 0.00 | 66 | 1077.6 |
| 20260505220703 | 57 | 100 | 2.6 | 8.7 | 0.00 | 0.00 | 0.00 | 65 | 1077.7 |
| 20260505220603 | 57 | 111 | 2.6 | 8.7 | 0.00 | 0.00 | 0.00 | 65 | 1077.5 |
| 20260505220503 | 57 | 124 | 2.6 | 8.7 | 0.00 | 0.00 | 0.00 | 65 | 1077.8 |
| 20260505220403 | 57 | 128 | 2.6 | 8.7 | 0.00 | 0.00 | 0.00 | 66 | 1077.6 |
| 20260505220303 | 57 | 127 | 2.6 | 8.7 | 0.00 | 0.00 | 0.00 | 65 | 1077.8 |
| 20260505220217 | 58 | 128 | 2.6 | 8.7 | 0.00 | 0.00 | 0.00 | 65 | 1077.8 |
| 20260505220203 | 58 | 129 | 2.6 | 8.7 | 0.00 | 0.00 | 0.00 | 65 | 1077.4 |
| 20260505220103 | 57 | 125 | 2.6 | 8.7 | 0.00 | 0.00 | 0.00 | 66 | 1077.7 |
| 20260505215903 | 57 | 121 | 2.6 | 8.7 | 0.00 | 0.00 | 0.00 | 66 | 1078.1 |
| 20260505215803 | 57 | 119 | 2.6 | 7.8 | 0.00 | 0.00 | 0.00 | 66 | 1077.9 |
| 20260505215703 | 57 | 111 | 2.6 | 8.7 | 0.00 | 0.00 | 0.00 | 66 | 1077.8 |
| 20260505215603 | 57 | 96 | 2.6 | 8.7 | 0.00 | 0.00 | 0.00 | 66 | 1077.6 |
| 20260505215517 | 57 | 87 | 2.6 | 8.7 | 0.00 | 0.00 | 0.00 | 65 | 1077.6 |
| 20260505215503 | 57 | 84 | 2.6 | 8.7 | 0.00 | 0.00 | 0.00 | 65 | 1077.2 |
| 20260505215403 | 57 | 83 | 2.6 | 8.7 | 0.00 | 0.00 | 0.00 | 65 | 1077.4 |
| 20260505215203 | 57 | 80 | 3.5 | 8.7 | 0.00 | 0.00 | 0.00 | 66 | 1076.9 |
| 20260505215103 | 57 | 82 | 4.3 | 11.3 | 0.00 | 0.00 | 0.00 | 66 | 1077.2 |
| 20260505215003 | 57 | 83 | 4.3 | 11.3 | 0.00 | 0.00 | 0.00 | 65 | 1077.2 |
| 20260505214903 | 57 | 79 | 4.3 | 11.3 | 0.00 | 0.00 | 0.00 | 66 | 1077.2 |
| 20260505214803 | 57 | 80 | 5.2 | 12.2 | 0.00 | 0.00 | 0.00 | 66 | 1077.0 |
| 20260505214703 | 57 | 77 | 5.2 | 12.2 | 0.00 | 0.00 | 0.00 | 66 | 1077.2 |
| 20260505214603 | 57 | 77 | 5.2 | 12.2 | 0.00 | 0.00 | 0.00 | 65 | 1076.9 |
| 20260505214403 | 57 | 76 | 5.2 | 12.2 | 0.00 | 0.00 | 0.00 | 65 | 1076.8 |
| 20260505214303 | 57 | 77 | 6.1 | 12.2 | 0.00 | 0.00 | 0.00 | 66 | 1076.9 |
| 20260505214203 | 57 | 79 | 6.1 | 12.2 | 0.00 | 0.00 | 0.00 | 65 | 1077.2 |
| 20260505214103 | 57 | 80 | 5.2 | 12.2 | 0.00 | 0.00 | 0.00 | 65 | 1076.9 |
| 20260505214003 | 57 | 78 | 5.2 | 12.2 | 0.00 | 0.00 | 0.00 | 65 | 1077.0 |
| 20260505213903 | 57 | 81 | 5.2 | 12.2 | 0.00 | 0.00 | 0.00 | 65 | 1077.5 |
| 20260505213803 | 57 | 79 | 5.2 | 12.2 | 0.00 | 0.00 | 0.00 | 65 | 1076.8 |
| 20260505213703 | 57 | 78 | 5.2 | 11.3 | 0.00 | 0.00 | 0.00 | 65 | 1077.2 |
| 20260505213603 | 57 | 80 | 5.2 | 11.3 | 0.00 | 0.00 | 0.00 | 65 | 1076.9 |
| 20260505213503 | 57 | 80 | 5.2 | 11.3 | 0.00 | 0.00 | 0.00 | 65 | 1076.8 |
| 20260505213403 | 57 | 79 | 5.2 | 11.3 | 0.00 | 0.00 | 0.00 | 65 | 1077.0 |
| 20260505213303 | 57 | 78 | 5.2 | 11.3 | 0.00 | 0.00 | 0.00 | 65 | 1077.0 |
| 20260505213203 | 57 | 77 | 5.2 | 11.3 | 0.00 | 0.00 | 0.00 | 65 | 1076.9 |
| 20260505213103 | 57 | 76 | 5.2 | 11.3 | 0.00 | 0.00 | 0.00 | 65 | 1076.8 |
| 20260505213003 | 57 | 76 | 5.2 | 11.3 | 0.00 | 0.00 | 0.00 | 65 | 1076.7 |
| 20260505212903 | 57 | 76 | 5.2 | 11.3 | 0.00 | 0.00 | 0.00 | 65 | 1077.0 |
| 20260505212803 | 57 | 79 | 5.2 | 11.3 | 0.00 | 0.00 | 0.00 | 65 | 1076.8 |
| 20260505212703 | 58 | 81 | 5.2 | 9.6 | 0.00 | 0.00 | 0.00 | 65 | 1077.0 |
| 20260505212603 | 58 | 81 | 5.2 | 9.6 | 0.00 | 0.00 | 0.00 | 65 | 1077.0 |
| 20260505212503 | 58 | 82 | 5.2 | 11.3 | 0.00 | 0.00 | 0.00 | 65 | 1076.9 |
| 20260505212403 | 58 | 84 | 5.2 | 12.2 | 0.00 | 0.00 | 0.00 | 65 | 1076.9 |
| 20260505212305 | 58 | 86 | 5.2 | 12.2 | 0.00 | 0.00 | 0.00 | 65 | 1076.9 |
| 20260505212203 | 58 | 87 | 5.2 | 12.2 | 0.00 | 0.00 | 0.00 | 65 | 1077.0 |
| 20260505212104 | 58 | 89 | 5.2 | 12.2 | 0.00 | 0.00 | 0.00 | 65 | 1077.0 |
| 20260505212003 | 58 | 90 | 6.1 | 12.2 | 0.00 | 0.00 | 0.00 | 64 | 1077.0 |
| 20260505211903 | 58 | 91 | 6.1 | 12.2 | 0.00 | 0.00 | 0.00 | 64 | 1076.9 |
| 20260505211803 | 58 | 89 | 5.2 | 12.2 | 0.00 | 0.00 | 0.00 | 64 | 1077.2 |
| 20260505211703 | 58 | 88 | 6.1 | 12.2 | 0.00 | 0.00 | 0.00 | 64 | 1077.1 |
| 20260505211603 | 58 | 85 | 6.1 | 12.2 | 0.00 | 0.00 | 0.00 | 65 | 1076.9 |
| 20260505211403 | 58 | 84 | 6.1 | 12.2 | 0.00 | 0.00 | 0.00 | 64 | 1077.1 |
| 20260505211303 | 58 | 84 | 5.2 | 12.2 | 0.00 | 0.00 | 0.00 | 64 | 1077.0 |
| 20260505211203 | 58 | 82 | 5.2 | 12.2 | 0.00 | 0.00 | 0.00 | 64 | 1077.0 |
| 20260505211103 | 58 | 82 | 5.2 | 12.2 | 0.00 | 0.00 | 0.00 | 64 | 1077.2 |
| 20260505211003 | 58 | 82 | 5.2 | 12.2 | 0.00 | 0.00 | 0.00 | 64 | 1077.2 |
| 20260505210903 | 58 | 81 | 5.2 | 12.2 | 0.00 | 0.00 | 0.00 | 64 | 1077.0 |
| 20260505210703 | 58 | 82 | 5.2 | 11.3 | 0.00 | 0.00 | 0.00 | 64 | 1077.1 |
| 20260505210603 | 58 | 84 | 5.2 | 11.3 | 0.00 | 0.00 | 0.00 | 64 | 1077.2 |
| 20260505210503 | 58 | 86 | 5.2 | 11.3 | 0.00 | 0.00 | 0.00 | 64 | 1077.1 |
| 20260505210403 | 58 | 87 | 5.2 | 11.3 | 0.00 | 0.00 | 0.00 | 64 | 1077.0 |
| 20260505210303 | 58 | 87 | 5.2 | 11.3 | 0.00 | 0.00 | 0.00 | 64 | 1077.1 |
| 20260505210203 | 58 | 88 | 5.2 | 11.3 | 0.00 | 0.00 | 0.00 | 64 | 1077.2 |
| 20260505210103 | 58 | 83 | 5.2 | 11.3 | 0.00 | 0.00 | 0.00 | 64 | 1076.8 |
| 20260505205903 | 58 | 84 | 5.2 | 9.6 | 0.00 | 0.00 | 0.00 | 63 | 1077.2 |
| 20260505205803 | 58 | 85 | 5.2 | 12.2 | 0.00 | 0.00 | 0.00 | 63 | 1076.9 |
| 20260505205703 | 58 | 84 | 6.1 | 12.2 | 0.00 | 0.00 | 0.00 | 63 | 1077.4 |
| 20260505205603 | 58 | 83 | 6.1 | 13.0 | 0.00 | 0.00 | 0.00 | 63 | 1077.0 |
| 20260505205503 | 58 | 82 | 6.1 | 13.0 | 0.00 | 0.00 | 0.00 | 63 | 1077.0 |
| 20260505205403 | 58 | 83 | 6.1 | 13.0 | 0.00 | 0.00 | 0.00 | 63 | 1076.8 |
| 20260505205305 | 58 | 82 | 6.1 | 13.0 | 0.00 | 0.00 | 0.00 | 63 | 1077.2 |
| 20260505205203 | 58 | 82 | 6.1 | 13.0 | 0.00 | 0.00 | 0.00 | 63 | 1077.1 |
| 20260505205103 | 58 | 85 | 7.0 | 13.0 | 0.00 | 0.00 | 0.00 | 63 | 1077.0 |
| 20260505205003 | 58 | 82 | 7.0 | 13.0 | 0.00 | 0.00 | 0.00 | 63 | 1077.0 |
| 20260505204903 | 59 | 80 | 7.0 | 13.0 | 0.00 | 0.00 | 0.00 | 63 | 1077.0 |
| 20260505204803 | 59 | 79 | 6.1 | 13.0 | 0.00 | 0.00 | 0.00 | 63 | 1077.2 |
| 20260505204703 | 59 | 80 | 6.1 | 13.0 | 0.00 | 0.00 | 0.00 | 63 | 1077.0 |
| 20260505204603 | 59 | 80 | 6.1 | 13.0 | 0.00 | 0.00 | 0.00 | 63 | 1077.1 |
| 20260505204503 | 59 | 79 | 6.1 | 13.0 | 0.00 | 0.00 | 0.00 | 63 | 1077.2 |
| 20260505204403 | 59 | 76 | 6.1 | 13.0 | 0.00 | 0.00 | 0.00 | 63 | 1077.1 |
| 20260505204318 | 59 | 76 | 6.1 | 13.0 | 0.00 | 0.00 | 0.00 | 63 | 1077.1 |
| 20260505204303 | 59 | 77 | 6.1 | 13.0 | 0.00 | 0.00 | 0.00 | 63 | 1076.8 |
| 20260505204203 | 59 | 79 | 6.1 | 12.2 | 0.00 | 0.00 | 0.00 | 63 | 1077.1 |
| 20260505204118 | 59 | 78 | 6.1 | 12.2 | 0.00 | 0.00 | 0.00 | 63 | 1077.1 |
| 20260505204003 | 59 | 80 | 6.1 | 12.2 | 0.00 | 0.00 | 0.00 | 63 | 1077.1 |
| 20260505203817 | 59 | 82 | 6.1 | 12.2 | 0.00 | 0.00 | 0.00 | 63 | 1077.5 |
| 20260505203803 | 59 | 82 | 6.1 | 12.2 | 0.00 | 0.00 | 0.00 | 63 | 1077.4 |
| 20260505203703 | 59 | 83 | 6.1 | 12.2 | 0.00 | 0.00 | 0.00 | 63 | 1077.5 |
| 20260505203503 | 59 | 84 | 5.2 | 12.2 | 0.00 | 0.00 | 0.00 | 63 | 1077.4 |
| 20260505203403 | 59 | 87 | 4.3 | 11.3 | 0.00 | 0.00 | 0.00 | 62 | 1077.1 |
| 20260505203318 | 59 | 87 | 4.3 | 9.6 | 0.00 | 0.00 | 0.00 | 62 | 1077.1 |
| 20260505203303 | 59 | 87 | 4.3 | 9.6 | 0.00 | 0.00 | 0.00 | 62 | 1077.2 |
| 20260505203203 | 59 | 82 | 4.3 | 9.6 | 0.00 | 0.00 | 0.00 | 62 | 1077.4 |
| 20260505203003 | 59 | 85 | 4.3 | 13.9 | 0.00 | 0.00 | 0.00 | 62 | 1077.1 |
| 20260505202916 | 59 | 83 | 5.2 | 13.9 | 0.00 | 0.00 | 0.00 | 62 | 1077.1 |
| 20260505202903 | 59 | 82 | 5.2 | 13.9 | 0.00 | 0.00 | 0.00 | 62 | 1077.5 |
| 20260505202817 | 59 | 81 | 5.2 | 13.9 | 0.00 | 0.00 | 0.00 | 62 | 1077.5 |
| 20260505202803 | 59 | 80 | 5.2 | 13.9 | 0.00 | 0.00 | 0.00 | 62 | 1077.5 |
| 20260505202618 | 60 | 77 | 5.2 | 13.9 | 0.00 | 0.00 | 0.00 | 62 | 1077.4 |
| 20260505202517 | 60 | 78 | 5.2 | 13.9 | 0.00 | 0.00 | 0.00 | 61 | 1077.1 |
| 20260505202503 | 60 | 78 | 5.2 | 13.9 | 0.00 | 0.00 | 0.00 | 61 | 1077.2 |
| 20260505202417 | 60 | 79 | 6.1 | 13.9 | 0.00 | 0.00 | 0.00 | 61 | 1077.2 |
| 20260505202103 | 60 | 76 | 6.1 | 13.9 | 0.00 | 0.00 | 0.00 | 61 | 1077.0 |
| 20260505202003 | 60 | 75 | 5.2 | 9.6 | 0.00 | 0.00 | 0.00 | 61 | 1077.1 |
| 20260505201916 | 60 | 77 | 5.2 | 11.3 | 0.00 | 0.00 | 0.00 | 61 | 1077.1 |
| 20260505201903 | 60 | 76 | 5.2 | 11.3 | 0.00 | 0.00 | 0.00 | 61 | 1077.1 |
| 20260505201803 | 60 | 77 | 5.2 | 11.3 | 0.00 | 0.00 | 0.00 | 61 | 1077.0 |
| 20260505201603 | 60 | 77 | 5.2 | 13.0 | 0.00 | 0.00 | 0.00 | 61 | 1077.1 |
| 20260505201503 | 60 | 78 | 6.1 | 13.0 | 0.00 | 0.00 | 0.00 | 61 | 1077.2 |
| 20260505201417 | 60 | 77 | 6.1 | 13.0 | 0.00 | 0.00 | 0.00 | 61 | 1077.2 |
| 20260505201403 | 60 | 77 | 6.1 | 13.0 | 0.00 | 0.00 | 0.00 | 61 | 1077.4 |
| 20260505201303 | 60 | 78 | 6.1 | 13.0 | 0.00 | 0.00 | 0.00 | 61 | 1077.4 |
| 20260505201117 | 60 | 81 | 6.1 | 13.0 | 0.00 | 0.00 | 0.00 | 60 | 1077.2 |
| 20260505201103 | 60 | 81 | 6.1 | 13.0 | 0.00 | 0.00 | 0.00 | 60 | 1077.0 |
| 20260505201003 | 60 | 80 | 6.1 | 13.0 | 0.00 | 0.00 | 0.00 | 60 | 1077.1 |
| 20260505200803 | 61 | 81 | 6.1 | 13.0 | 0.00 | 0.00 | 0.00 | 60 | 1077.5 |
| 20260505200718 | 61 | 83 | 6.1 | 13.0 | 0.00 | 0.00 | 0.00 | 60 | 1077.5 |
| 20260505200703 | 61 | 84 | 6.1 | 13.0 | 0.00 | 0.00 | 0.00 | 60 | 1077.0 |
| 20260505200603 | 61 | 84 | 6.1 | 12.2 | 0.00 | 0.00 | 0.00 | 60 | 1077.4 |
| 20260505200403 | 61 | 85 | 6.1 | 12.2 | 0.00 | 0.00 | 0.00 | 59 | 1077.5 |
| 20260505200318 | 61 | 86 | 6.1 | 12.2 | 0.00 | 0.00 | 0.00 | 59 | 1077.5 |
| 20260505200303 | 61 | 84 | 6.1 | 12.2 | 0.00 | 0.00 | 0.00 | 59 | 1077.5 |
| 20260505200216 | 61 | 84 | 6.1 | 12.2 | 0.00 | 0.00 | 0.00 | 59 | 1077.5 |
| 20260505200203 | 61 | 84 | 6.1 | 12.2 | 0.00 | 0.00 | 0.00 | 60 | 1077.4 |
| 20260505195918 | 61 | 87 | 5.2 | 12.2 | 0.00 | 0.00 | 0.00 | 59 | 1077.2 |
| 20260505195903 | 61 | 88 | 5.2 | 12.2 | 0.00 | 0.00 | 0.00 | 59 | 1077.4 |
| 20260505195803 | 61 | 88 | 5.2 | 12.2 | 0.00 | 0.00 | 0.00 | 59 | 1077.4 |
| 20260505195603 | 61 | 85 | 5.2 | 12.2 | 0.00 | 0.00 | 0.00 | 59 | 1077.5 |
| 20260505195503 | 61 | 81 | 5.2 | 13.9 | 0.00 | 0.00 | 0.00 | 59 | 1077.6 |
| 20260505195403 | 61 | 80 | 5.2 | 13.9 | 0.00 | 0.00 | 0.00 | 59 | 1077.1 |
| 20260505195305 | 61 | 81 | 5.2 | 13.9 | 0.00 | 0.00 | 0.00 | 59 | 1077.5 |
| 20260505195203 | 61 | 80 | 5.2 | 13.9 | 0.00 | 0.00 | 0.00 | 59 | 1077.5 |
| 20260505195103 | 61 | 79 | 6.1 | 13.9 | 0.00 | 0.00 | 0.00 | 59 | 1077.2 |
| 20260505195003 | 62 | 75 | 6.1 | 13.9 | 0.00 | 0.00 | 0.00 | 59 | 1077.7 |
| 20260505194903 | 62 | 75 | 6.1 | 13.9 | 0.00 | 0.00 | 0.00 | 58 | 1077.5 |
| 20260505194803 | 62 | 75 | 6.1 | 13.9 | 0.00 | 0.00 | 0.00 | 58 | 1077.4 |
| 20260505194703 | 62 | 76 | 6.1 | 13.9 | 0.00 | 0.00 | 0.00 | 58 | 1077.2 |
| 20260505194603 | 62 | 78 | 6.1 | 13.9 | 0.00 | 0.00 | 0.00 | 58 | 1077.4 |
| 20260505194503 | 62 | 82 | 6.1 | 13.0 | 0.00 | 0.00 | 0.00 | 58 | 1077.2 |
| 20260505194417 | 62 | 82 | 6.1 | 13.0 | 0.00 | 0.00 | 0.00 | 58 | 1077.2 |
| 20260505194403 | 62 | 81 | 6.1 | 13.0 | 0.00 | 0.00 | 0.00 | 58 | 1077.1 |
| 20260505194303 | 62 | 81 | 6.1 | 13.0 | 0.00 | 0.00 | 0.00 | 58 | 1077.0 |
| 20260505194117 | 62 | 82 | 7.0 | 13.0 | 0.00 | 0.00 | 0.00 | 58 | 1077.4 |
| 20260505194103 | 62 | 80 | 7.0 | 13.0 | 0.00 | 0.00 | 0.00 | 58 | 1077.4 |
| 20260505194003 | 62 | 81 | 7.0 | 13.0 | 0.00 | 0.00 | 0.00 | 58 | 1077.4 |
| 20260505193817 | 62 | 82 | 6.1 | 12.2 | 0.00 | 0.00 | 0.00 | 58 | 1077.5 |
| 20260505193704 | 62 | 80 | 6.1 | 12.2 | 0.00 | 0.00 | 0.00 | 58 | 1077.1 |
| 20260505193503 | 62 | 77 | 6.1 | 12.2 | 0.00 | 0.00 | 0.00 | 57 | 1077.5 |
| 20260505193403 | 62 | 76 | 6.1 | 12.2 | 0.00 | 0.00 | 0.00 | 57 | 1077.1 |
| 20260505193318 | 62 | 77 | 6.1 | 12.2 | 0.00 | 0.00 | 0.00 | 57 | 1077.4 |
| 20260505193303 | 62 | 76 | 6.1 | 12.2 | 0.00 | 0.00 | 0.00 | 57 | 1077.4 |
| 20260505193203 | 62 | 75 | 6.1 | 12.2 | 0.00 | 0.00 | 0.00 | 57 | 1077.5 |
| 20260505193117 | 62 | 76 | 6.1 | 12.2 | 0.00 | 0.00 | 0.00 | 57 | 1077.2 |
| 20260505193003 | 62 | 76 | 6.1 | 12.2 | 0.00 | 0.00 | 0.00 | 57 | 1077.5 |
| 20260505192803 | 62 | 77 | 6.1 | 12.2 | 0.00 | 0.00 | 0.00 | 57 | 1077.1 |
| 20260505192703 | 63 | 80 | 6.1 | 12.2 | 0.00 | 0.00 | 0.00 | 56 | 1077.4 |
| 20260505192503 | 63 | 78 | 7.0 | 14.8 | 0.00 | 0.00 | 0.00 | 56 | 1077.5 |
| 20260505192403 | 63 | 79 | 7.0 | 14.8 | 0.00 | 0.00 | 0.00 | 56 | 1077.2 |
| 20260505192305 | 63 | 80 | 7.0 | 15.6 | 0.00 | 0.00 | 0.00 | 56 | 1077.2 |
| 20260505192203 | 63 | 80 | 7.0 | 15.6 | 0.00 | 0.00 | 0.00 | 56 | 1077.5 |
| 20260505192103 | 63 | 78 | 7.8 | 15.6 | 0.00 | 0.00 | 0.00 | 56 | 1077.2 |
| 20260505192003 | 63 | 79 | 7.8 | 15.6 | 0.00 | 0.00 | 0.00 | 56 | 1077.4 |
| 20260505191903 | 63 | 81 | 7.8 | 15.6 | 0.00 | 0.00 | 0.00 | 56 | 1077.4 |
| 20260505191803 | 63 | 81 | 7.8 | 15.6 | 0.00 | 0.00 | 0.00 | 56 | 1077.4 |
| 20260505191703 | 63 | 79 | 7.8 | 15.6 | 0.00 | 0.00 | 0.00 | 56 | 1077.4 |
| 20260505191618 | 63 | 80 | 7.0 | 15.6 | 0.00 | 0.00 | 0.00 | 56 | 1077.1 |
| 20260505191603 | 63 | 81 | 7.0 | 15.6 | 0.00 | 0.00 | 0.00 | 56 | 1077.1 |
| 20260505191503 | 63 | 84 | 7.0 | 15.6 | 0.00 | 0.00 | 0.00 | 56 | 1077.5 |
| 20260505191303 | 64 | 84 | 6.1 | 13.0 | 0.00 | 0.00 | 0.00 | 55 | 1077.6 |
| 20260505191203 | 64 | 83 | 6.1 | 13.0 | 0.00 | 0.00 | 0.00 | 55 | 1077.6 |
| 20260505191103 | 64 | 82 | 6.1 | 13.0 | 0.00 | 0.00 | 0.00 | 55 | 1077.4 |
| 20260505191003 | 64 | 82 | 5.2 | 13.0 | 0.00 | 0.00 | 0.00 | 55 | 1077.4 |
| 20260505190903 | 64 | 76 | 5.2 | 13.0 | 0.00 | 0.00 | 0.00 | 55 | 1077.2 |
| 20260505190803 | 64 | 75 | 5.2 | 13.0 | 0.00 | 0.00 | 0.00 | 55 | 1077.2 |
| 20260505190703 | 64 | 74 | 5.2 | 13.0 | 0.00 | 0.00 | 0.00 | 55 | 1077.5 |
| 20260505190503 | 64 | 70 | 5.2 | 12.2 | 0.00 | 0.00 | 0.00 | 54 | 1077.5 |
| 20260505190403 | 64 | 73 | 5.2 | 13.0 | 0.00 | 0.00 | 0.00 | 54 | 1077.4 |
| 20260505190303 | 64 | 73 | 5.2 | 13.0 | 0.00 | 0.00 | 0.00 | 54 | 1077.4 |
| 20260505190204 | 64 | 74 | 5.2 | 13.0 | 0.00 | 0.00 | 0.00 | 54 | 1077.6 |
| 20260505190003 | 64 | 77 | 5.2 | 13.0 | 0.00 | 0.00 | 0.00 | 54 | 1077.1 |
| 20260505185903 | 64 | 76 | 5.2 | 13.0 | 0.00 | 0.00 | 0.00 | 54 | 1077.1 |
| 20260505185803 | 64 | 76 | 5.2 | 13.0 | 0.00 | 0.00 | 0.00 | 54 | 1077.2 |
| 20260505185703 | 65 | 74 | 5.2 | 13.0 | 0.00 | 0.00 | 0.00 | 54 | 1077.5 |
| 20260505185603 | 65 | 74 | 5.2 | 13.0 | 0.00 | 0.00 | 0.00 | 54 | 1077.1 |
| 20260505185503 | 65 | 73 | 5.2 | 13.0 | 0.00 | 0.00 | 0.00 | 54 | 1077.4 |
| 20260505185417 | 65 | 71 | 5.2 | 13.0 | 0.00 | 0.00 | 0.00 | 54 | 1077.4 |
| 20260505185403 | 65 | 71 | 5.2 | 13.0 | 0.00 | 0.00 | 0.00 | 54 | 1077.2 |
| 20260505185305 | 65 | 72 | 5.2 | 13.0 | 0.00 | 0.00 | 0.00 | 54 | 1077.2 |
| 20260505185117 | 65 | 77 | 6.1 | 13.0 | 0.00 | 0.00 | 0.00 | 53 | 1077.0 |
| 20260505185103 | 65 | 77 | 6.1 | 13.0 | 0.00 | 0.00 | 0.00 | 53 | 1077.2 |
| 20260505185003 | 65 | 77 | 6.1 | 13.0 | 0.00 | 0.00 | 0.00 | 53 | 1077.1 |
| 20260505184803 | 65 | 81 | 7.0 | 13.0 | 0.00 | 0.00 | 0.00 | 53 | 1077.5 |
| 20260505184703 | 65 | 83 | 6.1 | 13.0 | 0.00 | 0.00 | 0.00 | 53 | 1077.2 |
| 20260505184603 | 65 | 84 | 6.1 | 13.0 | 0.00 | 0.00 | 0.00 | 53 | 1077.1 |
| 20260505184518 | 65 | 84 | 6.1 | 13.0 | 0.00 | 0.00 | 0.00 | 53 | 1077.1 |
| 20260505184503 | 65 | 84 | 6.1 | 13.0 | 0.00 | 0.00 | 0.00 | 53 | 1077.4 |
| 20260505184403 | 65 | 84 | 5.2 | 13.0 | 0.00 | 0.00 | 0.00 | 52 | 1077.2 |
| 20260505184204 | 65 | 84 | 4.3 | 12.2 | 0.00 | 0.00 | 0.00 | 53 | 1077.4 |
| 20260505184103 | 65 | 79 | 4.3 | 12.2 | 0.00 | 0.00 | 0.00 | 52 | 1077.2 |
| 20260505184003 | 65 | 78 | 3.5 | 12.2 | 0.00 | 0.00 | 0.00 | 52 | 1077.1 |
| 20260505183903 | 65 | 74 | 3.5 | 8.7 | 0.00 | 0.00 | 0.00 | 52 | 1077.2 |
| 20260505183803 | 66 | 74 | 3.5 | 7.8 | 0.00 | 0.00 | 0.00 | 52 | 1077.1 |
| 20260505183703 | 66 | 74 | 3.5 | 7.8 | 0.00 | 0.00 | 0.00 | 52 | 1077.1 |
| 20260505183603 | 66 | 75 | 3.5 | 7.8 | 0.00 | 0.00 | 0.00 | 52 | 1077.1 |
| 20260505183503 | 66 | 74 | 3.5 | 7.8 | 0.00 | 0.00 | 0.00 | 51 | 1077.0 |
| 20260505183403 | 66 | 74 | 3.5 | 7.8 | 0.00 | 0.00 | 0.00 | 51 | 1077.1 |
| 20260505183303 | 66 | 75 | 3.5 | 7.8 | 0.00 | 0.00 | 0.00 | 51 | 1077.0 |
| 20260505183218 | 66 | 75 | 3.5 | 7.8 | 0.00 | 0.00 | 0.00 | 51 | 1077.0 |
| 20260505183203 | 66 | 75 | 3.5 | 7.8 | 0.00 | 0.00 | 0.00 | 51 | 1077.5 |
| 20260505183103 | 66 | 73 | 3.5 | 7.8 | 0.00 | 0.00 | 0.00 | 51 | 1076.9 |
| 20260505182918 | 66 | 74 | 4.3 | 7.8 | 0.00 | 0.00 | 0.00 | 51 | 1077.1 |
| 20260505182903 | 66 | 73 | 4.3 | 7.8 | 0.00 | 0.00 | 0.00 | 51 | 1077.2 |
| 20260505182803 | 66 | 73 | 4.3 | 7.8 | 0.00 | 0.00 | 0.00 | 51 | 1077.1 |
| 20260505182603 | 66 | 74 | 4.3 | 8.7 | 0.00 | 0.00 | 0.00 | 50 | 1077.1 |
| 20260505182503 | 66 | 75 | 4.3 | 8.7 | 0.00 | 0.00 | 0.00 | 50 | 1077.1 |
| 20260505182417 | 67 | 78 | 4.3 | 9.6 | 0.00 | 0.00 | 0.00 | 50 | 1077.1 |
| 20260505182403 | 67 | 80 | 4.3 | 9.6 | 0.00 | 0.00 | 0.00 | 50 | 1077.0 |
| 20260505182306 | 67 | 82 | 5.2 | 11.3 | 0.00 | 0.00 | 0.00 | 50 | 1076.9 |
| 20260505182103 | 67 | 83 | 6.1 | 13.0 | 0.00 | 0.00 | 0.00 | 49 | 1076.8 |
| 20260505182017 | 67 | 83 | 5.2 | 13.0 | 0.00 | 0.00 | 0.00 | 49 | 1076.8 |
| 20260505182003 | 67 | 84 | 5.2 | 13.0 | 0.00 | 0.00 | 0.00 | 49 | 1077.0 |
| 20260505181903 | 67 | 83 | 5.2 | 13.0 | 0.00 | 0.00 | 0.00 | 49 | 1076.9 |
| 20260505181703 | 67 | 85 | 5.2 | 13.0 | 0.00 | 0.00 | 0.00 | 49 | 1076.8 |
| 20260505181603 | 67 | 86 | 5.2 | 13.0 | 0.00 | 0.00 | 0.00 | 49 | 1077.1 |
| 20260505181503 | 67 | 87 | 5.2 | 13.0 | 0.00 | 0.00 | 0.00 | 49 | 1077.1 |
| 20260505181403 | 67 | 84 | 5.2 | 13.0 | 0.00 | 0.00 | 0.00 | 49 | 1077.1 |
| 20260505181303 | 67 | 84 | 5.2 | 13.0 | 0.00 | 0.00 | 0.00 | 49 | 1077.0 |
| 20260505181203 | 67 | 83 | 4.3 | 9.6 | 0.00 | 0.00 | 0.00 | 49 | 1077.2 |
| 20260505181103 | 67 | 82 | 4.3 | 11.3 | 0.00 | 0.00 | 0.00 | 49 | 1076.8 |
| 20260505181003 | 67 | 82 | 4.3 | 11.3 | 0.00 | 0.00 | 0.00 | 49 | 1076.9 |
| 20260505180903 | 67 | 84 | 5.2 | 11.3 | 0.00 | 0.00 | 0.00 | 48 | 1076.9 |
| 20260505180803 | 67 | 80 | 5.2 | 11.3 | 0.00 | 0.00 | 0.00 | 48 | 1076.9 |
| 20260505180703 | 67 | 76 | 5.2 | 11.3 | 0.00 | 0.00 | 0.00 | 48 | 1077.0 |
| 20260505180603 | 67 | 72 | 5.2 | 11.3 | 0.00 | 0.00 | 0.00 | 48 | 1076.9 |
| 20260505180503 | 67 | 71 | 4.3 | 11.3 | 0.00 | 0.00 | 0.00 | 48 | 1077.1 |
| 20260505180403 | 67 | 70 | 4.3 | 11.3 | 0.00 | 0.00 | 0.00 | 48 | 1077.0 |
| 20260505180303 | 67 | 67 | 4.3 | 11.3 | 0.00 | 0.00 | 0.00 | 47 | 1076.9 |
| 20260505180203 | 68 | 67 | 4.3 | 11.3 | 0.00 | 0.00 | 0.00 | 47 | 1077.1 |
| 20260505180103 | 68 | 67 | 4.3 | 9.6 | 0.00 | 0.00 | 0.00 | 47 | 1077.0 |
| 20260505180003 | 68 | 68 | 4.3 | 9.6 | 0.00 | 0.00 | 0.00 | 47 | 1076.8 |
| 20260505175903 | 68 | 67 | 3.5 | 9.6 | 0.00 | 0.00 | 0.00 | 47 | 1077.2 |
| 20260505175804 | 68 | 67 | 3.5 | 7.8 | 0.00 | 0.00 | 0.00 | 46 | 1077.1 |
| 20260505175703 | 68 | 73 | 3.5 | 7.8 | 0.00 | 0.00 | 0.00 | 46 | 1076.9 |
| 20260505175603 | 68 | 76 | 3.5 | 7.8 | 0.00 | 0.00 | 0.00 | 45 | 1077.1 |
| 20260505175503 | 68 | 77 | 3.5 | 7.8 | 0.00 | 0.00 | 0.00 | 46 | 1076.9 |
| 20260505175403 | 68 | 78 | 3.5 | 7.8 | 0.00 | 0.00 | 0.00 | 46 | 1076.9 |
| 20260505175305 | 68 | 82 | 3.5 | 7.8 | 0.00 | 0.00 | 0.00 | 46 | 1076.9 |
| 20260505175203 | 68 | 82 | 3.5 | 7.8 | 0.00 | 0.00 | 0.00 | 45 | 1076.9 |
| 20260505175103 | 68 | 82 | 3.5 | 7.8 | 0.00 | 0.00 | 0.00 | 45 | 1076.8 |
| 20260505175017 | 68 | 83 | 3.5 | 7.8 | 0.00 | 0.00 | 0.00 | 45 | 1076.8 |
| 20260505175003 | 68 | 84 | 2.6 | 7.8 | 0.00 | 0.00 | 0.00 | 45 | 1077.0 |
| 20260505174903 | 68 | 83 | 2.6 | 7.8 | 0.00 | 0.00 | 0.00 | 45 | 1076.9 |
| 20260505174703 | 68 | 86 | 2.6 | 7.8 | 0.00 | 0.00 | 0.00 | 44 | 1077.1 |
| 20260505174603 | 68 | 84 | 2.6 | 7.8 | 0.00 | 0.00 | 0.00 | 44 | 1076.8 |
| 20260505174503 | 68 | 85 | 2.6 | 7.8 | 0.00 | 0.00 | 0.00 | 44 | 1077.0 |
| 20260505174403 | 68 | 84 | 2.6 | 7.8 | 0.00 | 0.00 | 0.00 | 43 | 1077.0 |
| 20260505174303 | 68 | 82 | 2.6 | 6.1 | 0.00 | 0.00 | 0.00 | 42 | 1077.0 |
| 20260505174203 | 68 | 79 | 2.6 | 6.1 | 0.00 | 0.00 | 0.00 | 42 | 1076.9 |
| 20260505174103 | 68 | 79 | 2.6 | 6.1 | 0.00 | 0.00 | 0.00 | 42 | 1076.9 |
| 20260505174003 | 68 | 77 | 2.6 | 6.1 | 0.00 | 0.00 | 0.00 | 43 | 1076.9 |
| 20260505173903 | 68 | 76 | 2.6 | 6.1 | 0.00 | 0.00 | 0.00 | 42 | 1076.7 |
| 20260505173803 | 68 | 75 | 2.6 | 6.1 | 0.00 | 0.00 | 0.00 | 42 | 1076.9 |
| 20260505173703 | 68 | 73 | 2.6 | 5.2 | 0.00 | 0.00 | 0.00 | 42 | 1077.1 |
| 20260505173603 | 68 | 73 | 2.6 | 5.2 | 0.00 | 0.00 | 0.00 | 41 | 1077.0 |
| 20260505173503 | 68 | 72 | 2.6 | 5.2 | 0.00 | 0.00 | 0.00 | 41 | 1077.1 |
| 20260505173403 | 68 | 73 | 2.6 | 5.2 | 0.00 | 0.00 | 0.00 | 41 | 1077.1 |
| 20260505173303 | 68 | 75 | 1.7 | 5.2 | 0.00 | 0.00 | 0.00 | 41 | 1077.0 |
| 20260505173203 | 68 | 74 | 2.6 | 5.2 | 0.00 | 0.00 | 0.00 | 41 | 1076.9 |
| 20260505173103 | 68 | 72 | 2.6 | 7.0 | 0.00 | 0.00 | 0.00 | 41 | 1077.1 |
| 20260505173003 | 69 | 73 | 2.6 | 7.0 | 0.00 | 0.00 | 0.00 | 40 | 1077.0 |
| 20260505172903 | 69 | 74 | 1.7 | 7.0 | 0.00 | 0.00 | 0.00 | 40 | 1076.9 |
| 20260505172803 | 69 | 75 | 1.7 | 7.0 | 0.00 | 0.00 | 0.00 | 40 | 1077.0 |
| 20260505172703 | 69 | 74 | 2.6 | 7.0 | 0.00 | 0.00 | 0.00 | 40 | 1077.0 |
| 20260505172603 | 69 | 73 | 2.6 | 7.0 | 0.00 | 0.00 | 0.00 | 39 | 1077.0 |
| 20260505172503 | 69 | 72 | 1.7 | 7.0 | 0.00 | 0.00 | 0.00 | 39 | 1076.8 |
| 20260505172403 | 69 | 70 | 2.6 | 7.0 | 0.00 | 0.00 | 0.00 | 39 | 1077.0 |
| 20260505172305 | 69 | 69 | 2.6 | 7.0 | 0.00 | 0.00 | 0.00 | 39 | 1077.2 |
| 20260505172203 | 69 | 69 | 1.7 | 7.0 | 0.00 | 0.00 | 0.00 | 39 | 1077.1 |
| 20260505172103 | 69 | 72 | 1.7 | 5.2 | 0.00 | 0.00 | 0.00 | 39 | 1077.1 |
| 20260505172003 | 69 | 70 | 1.7 | 3.5 | 0.00 | 0.00 | 0.00 | 39 | 1077.1 |
| 20260505171903 | 69 | 70 | 1.7 | 3.5 | 0.00 | 0.00 | 0.00 | 39 | 1077.0 |
| 20260505171803 | 69 | 73 | 1.7 | 3.5 | 0.00 | 0.00 | 0.00 | 39 | 1077.1 |
| 20260505171703 | 69 | 72 | 1.7 | 5.2 | 0.00 | 0.00 | 0.00 | 39 | 1077.0 |
| 20260505171603 | 69 | 74 | 1.7 | 5.2 | 0.00 | 0.00 | 0.00 | 39 | 1077.0 |
| 20260505171503 | 69 | 74 | 1.7 | 5.2 | 0.00 | 0.00 | 0.00 | 38 | 1077.0 |
| 20260505171418 | 69 | 77 | 1.7 | 7.0 | 0.00 | 0.00 | 0.00 | 38 | 1077.0 |
| 20260505171403 | 69 | 78 | 1.7 | 7.0 | 0.00 | 0.00 | 0.00 | 38 | 1077.0 |
| 20260505171304 | 69 | 78 | 2.6 | 7.0 | 0.00 | 0.00 | 0.00 | 38 | 1076.9 |
| 20260505171103 | 69 | 81 | 2.6 | 7.0 | 0.00 | 0.00 | 0.00 | 39 | 1077.0 |
| 20260505171003 | 70 | 81 | 2.6 | 7.0 | 0.00 | 0.00 | 0.00 | 39 | 1077.1 |
| 20260505170903 | 70 | 77 | 3.5 | 8.7 | 0.00 | 0.00 | 0.00 | 38 | 1076.9 |
| 20260505170803 | 70 | 77 | 3.5 | 8.7 | 0.00 | 0.00 | 0.00 | 38 | 1077.1 |
| 20260505170703 | 70 | 78 | 3.5 | 8.7 | 0.00 | 0.00 | 0.00 | 38 | 1077.0 |
| 20260505170617 | 70 | 77 | 3.5 | 8.7 | 0.00 | 0.00 | 0.00 | 38 | 1077.0 |
| 20260505170503 | 70 | 77 | 3.5 | 8.7 | 0.00 | 0.00 | 0.00 | 38 | 1077.2 |
| 20260505170303 | 70 | 74 | 2.6 | 8.7 | 0.00 | 0.00 | 0.00 | 38 | 1077.2 |
| 20260505170203 | 70 | 73 | 2.6 | 8.7 | 0.00 | 0.00 | 0.00 | 38 | 1077.4 |
| 20260505170103 | 70 | 72 | 2.6 | 8.7 | 0.00 | 0.00 | 0.00 | 37 | 1077.4 |
| 20260505170003 | 70 | 73 | 2.6 | 8.7 | 0.00 | 0.00 | 0.00 | 38 | 1077.1 |
| 20260505165803 | 70 | 74 | 1.7 | 6.1 | 0.00 | 0.00 | 0.00 | 38 | 1077.2 |
| 20260505165703 | 70 | 75 | 1.7 | 6.1 | 0.00 | 0.00 | 0.00 | 38 | 1077.1 |
| 20260505165603 | 70 | 78 | 1.7 | 6.1 | 0.00 | 0.00 | 0.00 | 38 | 1077.1 |
| 20260505165503 | 71 | 79 | 1.7 | 6.1 | 0.00 | 0.00 | 0.00 | 38 | 1077.2 |
| 20260505165403 | 71 | 81 | 1.7 | 6.1 | 0.00 | 0.00 | 0.00 | 38 | 1077.1 |
| 20260505165305 | 71 | 82 | 1.7 | 6.1 | 0.00 | 0.00 | 0.00 | 38 | 1077.0 |
| 20260505165203 | 71 | 78 | 2.6 | 5.2 | 0.00 | 0.00 | 0.00 | 38 | 1076.8 |
| 20260505165118 | 71 | 78 | 2.6 | 5.2 | 0.00 | 0.00 | 0.00 | 38 | 1076.8 |
| 20260505165103 | 71 | 77 | 2.6 | 5.2 | 0.00 | 0.00 | 0.00 | 38 | 1077.0 |
| 20260505165003 | 71 | 71 | 2.6 | 6.1 | 0.00 | 0.00 | 0.00 | 38 | 1077.4 |
| 20260505164918 | 71 | 70 | 2.6 | 7.8 | 0.00 | 0.00 | 0.00 | 37 | 1077.4 |
| 20260505164803 | 71 | 69 | 3.5 | 7.8 | 0.00 | 0.00 | 0.00 | 38 | 1077.2 |
| 20260505164603 | 71 | 67 | 3.5 | 7.8 | 0.00 | 0.00 | 0.00 | 37 | 1077.2 |
| 20260505164503 | 71 | 65 | 3.5 | 7.8 | 0.00 | 0.00 | 0.00 | 37 | 1077.2 |
| 20260505164418 | 71 | 65 | 3.5 | 7.8 | 0.00 | 0.00 | 0.00 | 37 | 1077.2 |
| 20260505164403 | 71 | 65 | 3.5 | 7.8 | 0.00 | 0.00 | 0.00 | 37 | 1077.1 |
| 20260505164303 | 71 | 64 | 3.5 | 7.8 | 0.00 | 0.00 | 0.00 | 37 | 1077.2 |
| 20260505164103 | 71 | 68 | 3.5 | 7.8 | 0.00 | 0.00 | 0.00 | 37 | 1077.2 |
| 20260505164003 | 71 | 71 | 2.6 | 7.8 | 0.00 | 0.00 | 0.00 | 37 | 1077.4 |
| 20260505163917 | 71 | 75 | 2.6 | 7.0 | 0.00 | 0.00 | 0.00 | 37 | 1077.4 |
| 20260505163903 | 71 | 75 | 2.6 | 7.0 | 0.00 | 0.00 | 0.00 | 37 | 1077.5 |
| 20260505163803 | 71 | 79 | 3.5 | 11.3 | 0.00 | 0.00 | 0.00 | 37 | 1077.2 |
| 20260505163604 | 71 | 81 | 3.5 | 11.3 | 0.00 | 0.00 | 0.00 | 37 | 1077.5 |
| 20260505163503 | 71 | 84 | 3.5 | 11.3 | 0.00 | 0.00 | 0.00 | 37 | 1077.4 |
| 20260505163403 | 71 | 86 | 3.5 | 11.3 | 0.00 | 0.00 | 0.00 | 37 | 1077.4 |
| 20260505163317 | 71 | 86 | 3.5 | 11.3 | 0.00 | 0.00 | 0.00 | 37 | 1077.4 |
| 20260505163303 | 71 | 86 | 3.5 | 11.3 | 0.00 | 0.00 | 0.00 | 37 | 1077.2 |
| 20260505163217 | 71 | 87 | 4.3 | 11.3 | 0.00 | 0.00 | 0.00 | 37 | 1077.2 |
| 20260505163203 | 71 | 88 | 4.3 | 11.3 | 0.00 | 0.00 | 0.00 | 37 | 1077.6 |
| 20260505162903 | 71 | 87 | 4.3 | 11.3 | 0.00 | 0.00 | 0.00 | 36 | 1077.4 |
| 20260505162818 | 71 | 86 | 4.3 | 11.3 | 0.00 | 0.00 | 0.00 | 36 | 1077.4 |
| 20260505162803 | 71 | 85 | 4.3 | 8.7 | 0.00 | 0.00 | 0.00 | 36 | 1077.5 |
| 20260505162703 | 71 | 85 | 3.5 | 8.7 | 0.00 | 0.00 | 0.00 | 36 | 1077.2 |
| 20260505162503 | 71 | 85 | 3.5 | 8.7 | 0.00 | 0.00 | 0.00 | 37 | 1077.5 |
| 20260505162403 | 71 | 84 | 3.5 | 8.7 | 0.00 | 0.00 | 0.00 | 36 | 1077.5 |
| 20260505162306 | 71 | 84 | 3.5 | 8.7 | 0.00 | 0.00 | 0.00 | 36 | 1077.6 |
| 20260505162203 | 71 | 82 | 3.5 | 8.7 | 0.00 | 0.00 | 0.00 | 36 | 1077.7 |
| 20260505162103 | 71 | 83 | 3.5 | 8.7 | 0.00 | 0.00 | 0.00 | 37 | 1077.5 |
| 20260505162003 | 71 | 85 | 3.5 | 8.7 | 0.00 | 0.00 | 0.00 | 36 | 1077.6 |
| 20260505161903 | 71 | 85 | 3.5 | 8.7 | 0.00 | 0.00 | 0.00 | 37 | 1077.6 |
| 20260505161803 | 71 | 87 | 3.5 | 8.7 | 0.00 | 0.00 | 0.00 | 37 | 1077.6 |
| 20260505161703 | 71 | 86 | 4.3 | 8.7 | 0.00 | 0.00 | 0.00 | 36 | 1077.6 |
| 20260505161603 | 71 | 85 | 4.3 | 8.7 | 0.00 | 0.00 | 0.00 | 36 | 1077.7 |
| 20260505161503 | 71 | 83 | 4.3 | 8.7 | 0.00 | 0.00 | 0.00 | 37 | 1077.6 |
| 20260505161403 | 71 | 84 | 4.3 | 8.7 | 0.00 | 0.00 | 0.00 | 36 | 1077.6 |
| 20260505161303 | 71 | 83 | 4.3 | 8.7 | 0.00 | 0.00 | 0.00 | 35 | 1077.6 |
| 20260505161203 | 71 | 83 | 4.3 | 8.7 | 0.00 | 0.00 | 0.00 | 35 | 1077.8 |
| 20260505161103 | 72 | 82 | 4.3 | 8.7 | 0.00 | 0.00 | 0.00 | 35 | 1077.6 |
| 20260505161003 | 72 | 81 | 3.5 | 8.7 | 0.00 | 0.00 | 0.00 | 35 | 1077.6 |
| 20260505160903 | 72 | 82 | 3.5 | 8.7 | 0.00 | 0.00 | 0.00 | 35 | 1077.8 |
| 20260505160803 | 72 | 81 | 3.5 | 8.7 | 0.00 | 0.00 | 0.00 | 35 | 1077.7 |
| 20260505160703 | 72 | 83 | 3.5 | 11.3 | 0.00 | 0.00 | 0.00 | 35 | 1077.6 |
| 20260505160603 | 72 | 87 | 3.5 | 11.3 | 0.00 | 0.00 | 0.00 | 35 | 1077.8 |
| 20260505160503 | 72 | 88 | 4.3 | 14.8 | 0.00 | 0.00 | 0.00 | 35 | 1077.9 |
| 20260505160403 | 72 | 87 | 4.3 | 14.8 | 0.00 | 0.00 | 0.00 | 35 | 1077.7 |
| 20260505160303 | 72 | 89 | 4.3 | 14.8 | 0.00 | 0.00 | 0.00 | 35 | 1077.6 |
| 20260505160203 | 72 | 90 | 4.3 | 14.8 | 0.00 | 0.00 | 0.00 | 35 | 1077.6 |
| 20260505153303 | 74 | 91 | 5.2 | 13.0 | 0.00 | 0.00 | 0.00 | 35 | 1077.7 |
| 20260505153203 | 74 | 94 | 5.2 | 13.0 | 0.00 | 0.00 | 0.00 | 35 | 1077.7 |
| 20260505153118 | 74 | 92 | 6.1 | 13.0 | 0.00 | 0.00 | 0.00 | 35 | 1077.6 |
| 20260505153103 | 74 | 91 | 6.1 | 13.0 | 0.00 | 0.00 | 0.00 | 35 | 1077.6 |
| 20260505153003 | 74 | 87 | 5.2 | 13.0 | 0.00 | 0.00 | 0.00 | 35 | 1077.7 |
| 20260505152803 | 74 | 88 | 5.2 | 13.0 | 0.00 | 0.00 | 0.00 | 35 | 1077.7 |
| 20260505152703 | 74 | 89 | 4.3 | 12.2 | 0.00 | 0.00 | 0.00 | 35 | 1077.8 |
| 20260505152616 | 74 | 90 | 5.2 | 12.2 | 0.00 | 0.00 | 0.00 | 36 | 1077.9 |
| 20260505152604 | 74 | 90 | 5.2 | 12.2 | 0.00 | 0.00 | 0.00 | 36 | 1077.9 |
| 20260505152504 | 74 | 87 | 5.2 | 12.2 | 0.00 | 0.00 | 0.00 | 36 | 1077.7 |
| 20260505152418 | 74 | 89 | 5.2 | 12.2 | 0.00 | 0.00 | 0.00 | 36 | 1077.8 |
| 20260505152103 | 74 | 93 | 5.2 | 12.2 | 0.00 | 0.00 | 0.00 | 36 | 1077.8 |
| 20260505152003 | 74 | 98 | 6.1 | 12.2 | 0.00 | 0.00 | 0.00 | 36 | 1077.9 |
| 20260505151903 | 74 | 100 | 6.1 | 13.0 | 0.00 | 0.00 | 0.00 | 36 | 1077.8 |
| 20260505151803 | 74 | 101 | 7.0 | 13.0 | 0.00 | 0.00 | 0.00 | 37 | 1077.8 |
| 20260505151703 | 74 | 102 | 7.0 | 13.0 | 0.00 | 0.00 | 0.00 | 37 | 1077.9 |
| 20260505151603 | 74 | 102 | 7.0 | 13.0 | 0.00 | 0.00 | 0.00 | 37 | 1078.1 |
| 20260505151503 | 74 | 102 | 6.1 | 13.0 | 0.00 | 0.00 | 0.00 | 37 | 1077.8 |
| 20260505151403 | 74 | 100 | 6.1 | 13.0 | 0.00 | 0.00 | 0.00 | 37 | 1077.8 |
| 20260505151318 | 74 | 98 | 6.1 | 13.0 | 0.00 | 0.00 | 0.00 | 37 | 1078.0 |
| 20260505151303 | 74 | 99 | 6.1 | 13.0 | 0.00 | 0.00 | 0.00 | 37 | 1078.0 |
| 20260505151203 | 74 | 100 | 6.1 | 13.0 | 0.00 | 0.00 | 0.00 | 37 | 1078.0 |
| 20260505151117 | 74 | 98 | 5.2 | 13.0 | 0.00 | 0.00 | 0.00 | 37 | 1078.0 |
| 20260505151003 | 74 | 96 | 5.2 | 13.0 | 0.00 | 0.00 | 0.00 | 37 | 1078.1 |
| 20260505150803 | 74 | 96 | 4.3 | 12.2 | 0.00 | 0.00 | 0.00 | 37 | 1078.1 |
| 20260505150703 | 74 | 97 | 5.2 | 12.2 | 0.00 | 0.00 | 0.00 | 37 | 1077.9 |
| 20260505150603 | 74 | 97 | 5.2 | 12.2 | 0.00 | 0.00 | 0.00 | 38 | 1078.1 |
| 20260505150503 | 74 | 105 | 5.2 | 13.0 | 0.00 | 0.00 | 0.00 | 38 | 1077.8 |
| 20260505150403 | 74 | 106 | 5.2 | 13.0 | 0.00 | 0.00 | 0.00 | 38 | 1077.9 |
| 20260505150303 | 74 | 107 | 5.2 | 13.0 | 0.00 | 0.00 | 0.00 | 37 | 1078.0 |
| 20260505150203 | 74 | 107 | 6.1 | 13.0 | 0.00 | 0.00 | 0.00 | 37 | 1077.9 |
| 20260505140618 | 74 | 90 | 7.0 | 14.8 | 0.00 | 0.00 | 0.00 | 41 | 1078.8 |
| 20260505140303 | 74 | 94 | 7.0 | 14.8 | 0.00 | 0.00 | 0.00 | 40 | 1078.7 |
| 20260505140203 | 74 | 93 | 7.0 | 14.8 | 0.00 | 0.00 | 0.00 | 41 | 1078.6 |